Time,TemperatureF,DewpointF,PressureIn,WindDirection,WindDirectionDegrees,WindSpeedMPH,WindSpeedGustMPH,Humidity,HourlyPrecipIn,Conditions,Clouds,dailyrainin,SoftwareType,DateUTC
2013-07-10 00:00:00,72.1,68.7,29.94,SE,144,4.0,11.0,89,0.00,,,0.73,Wunderground v.1.15,2013-07-10 04:00:00,
2013-07-10 00:01:00,72.1,68.7,29.94,SSE,157,4.0,11.0,89,0.00,,,0.73,Wunderground v.1.15,2013-07-10 04:01:00,
2013-07-10 00:02:00,72.1,68.7,29.94,SSE,165,5.0,11.0,89,0.00,,,0.73,Wunderground v.1.15,2013-07-10 04:02:00,
2013-07-10 00:03:00,72.1,68.7,29.94,SSE,165,4.0,11.0,89,0.00,,,0.73,Wunderground v.1.15,2013-07-10 04:03:00,
2013-07-10 00:06:00,72.1,68.7,29.94,SSE,162,4.0,11.0,89,0.00,,,0.73,Wunderground v.1.15,2013-07-10 04:06:00,
2013-07-10 00:08:00,72.1,68.7,29.94,SE,144,5.0,11.0,89,0.00,,,0.73,Wunderground v.1.15,2013-07-10 04:08:00,
2013-07-10 00:09:00,72.1,68.7,29.94,South,175,5.0,11.0,89,0.00,,,0.73,Wunderground v.1.15,2013-07-10 04:09:00,
2013-07-10 00:15:00,72.0,68.6,29.93,SSE,149,5.0,11.0,89,0.00,,,0.73,Wunderground v.1.15,2013-07-10 04:15:00,
2013-07-10 00:17:00,72.0,68.6,29.93,SSW,213,6.0,11.0,89,0.00,,,0.73,Wunderground v.1.15,2013-07-10 04:17:00,
2013-07-10 00:18:00,72.0,68.6,29.93,SSE,164,6.0,11.0,89,0.00,,,0.73,Wunderground v.1.15,2013-07-10 04:18:00,
2013-07-10 00:19:00,72.0,68.6,29.93,South,175,6.0,11.0,89,0.00,,,0.73,Wunderground v.1.15,2013-07-10 04:19:00,
2013-07-10 00:20:00,72.0,68.6,29.93,South,171,5.0,11.0,89,0.00,,,0.73,Wunderground v.1.15,2013-07-10 04:20:00,
2013-07-10 00:24:00,72.0,68.6,29.93,SSE,167,7.0,11.0,89,0.00,,,0.73,Wunderground v.1.15,2013-07-10 04:24:00,
2013-07-10 00:25:00,71.9,68.5,29.93,SSE,167,6.0,11.0,89,0.00,,,0.73,Wunderground v.1.15,2013-07-10 04:25:00,
2013-07-10 00:26:00,72.0,68.6,29.93,SSE,166,6.0,11.0,89,0.00,,,0.73,Wunderground v.1.15,2013-07-10 04:26:00,
2013-07-10 00:28:00,71.9,68.5,29.93,SSE,166,6.0,11.0,89,0.00,,,0.73,Wunderground v.1.15,2013-07-10 04:28:00,
2013-07-10 00:31:00,71.9,68.5,29.93,SSE,149,5.0,11.0,89,0.00,,,0.73,Wunderground v.1.15,2013-07-10 04:31:00,
2013-07-10 00:32:00,71.9,68.5,29.93,SSE,163,5.0,11.0,89,0.00,,,0.73,Wunderground v.1.15,2013-07-10 04:32:00,
2013-07-10 00:33:00,71.9,68.5,29.93,SSE,157,5.0,11.0,89,0.00,,,0.73,Wunderground v.1.15,2013-07-10 04:33:00,
2013-07-10 00:34:00,71.9,68.5,29.93,SSE,166,4.0,11.0,89,0.00,,,0.73,Wunderground v.1.15,2013-07-10 04:34:00,
2013-07-10 00:35:00,71.9,68.5,29.93,South,169,5.0,11.0,89,0.00,,,0.73,Wunderground v.1.15,2013-07-10 04:35:00,
2013-07-10 00:39:00,71.8,68.4,29.94,South,184,5.0,11.0,89,0.00,,,0.73,Wunderground v.1.15,2013-07-10 04:39:00,
2013-07-10 00:40:00,71.9,68.5,29.94,SSE,158,5.0,5.0,89,0.00,,,0.73,Wunderground v.1.15,2013-07-10 04:40:00,
2013-07-10 00:41:00,71.9,68.5,29.94,SSE,158,5.0,11.0,89,0.00,,,0.73,Wunderground v.1.15,2013-07-10 04:41:00,
2013-07-10 00:42:00,71.9,68.5,29.94,SSE,159,4.0,11.0,89,0.00,,,0.73,Wunderground v.1.15,2013-07-10 04:42:00,
2013-07-10 00:46:00,71.8,68.4,29.94,South,183,5.0,11.0,89,0.00,,,0.73,Wunderground v.1.15,2013-07-10 04:46:00,
2013-07-10 00:47:00,71.8,68.4,29.93,SSE,163,5.0,11.0,89,0.00,,,0.73,Wunderground v.1.15,2013-07-10 04:47:00,
2013-07-10 00:49:00,71.7,68.3,29.94,South,171,5.0,11.0,89,0.00,,,0.73,Wunderground v.1.15,2013-07-10 04:49:00,
2013-07-10 00:51:00,71.7,68.3,29.93,South,172,5.0,11.0,89,0.00,,,0.73,Wunderground v.1.15,2013-07-10 04:51:00,
2013-07-10 00:52:00,71.7,68.3,29.94,SSE,159,5.0,11.0,89,0.00,,,0.73,Wunderground v.1.15,2013-07-10 04:52:00,
2013-07-10 00:53:00,71.7,68.3,29.93,SSE,159,6.0,11.0,89,0.00,,,0.73,Wunderground v.1.15,2013-07-10 04:53:00,
2013-07-10 00:54:00,71.7,68.3,29.93,SSE,159,6.0,11.0,89,0.00,,,0.73,Wunderground v.1.15,2013-07-10 04:54:00,
2013-07-10 00:56:00,71.7,68.3,29.93,SSE,159,5.0,11.0,89,0.00,,,0.73,Wunderground v.1.15,2013-07-10 04:56:00,
2013-07-10 00:57:00,71.7,68.3,29.93,SSE,159,5.0,11.0,89,0.00,,,0.73,Wunderground v.1.15,2013-07-10 04:57:00,
2013-07-10 00:59:00,71.7,68.3,29.93,SSE,159,4.0,11.0,89,0.00,,,0.73,Wunderground v.1.15,2013-07-10 04:59:00,
2013-07-10 01:00:00,71.7,68.3,29.93,SSE,159,4.0,10.0,89,0.00,,,0.73,Wunderground v.1.15,2013-07-10 05:00:00,
2013-07-10 01:01:00,71.7,68.3,29.93,South,175,4.0,10.0,89,0.00,,,0.73,Wunderground v.1.15,2013-07-10 05:01:00,
2013-07-10 01:02:00,71.7,68.3,29.93,South,175,4.0,10.0,89,0.00,,,0.73,Wunderground v.1.15,2013-07-10 05:02:00,
2013-07-10 01:05:00,71.7,68.3,29.93,South,175,3.0,10.0,89,0.00,,,0.73,Wunderground v.1.15,2013-07-10 05:05:00,
2013-07-10 01:06:00,71.7,68.3,29.93,South,175,3.0,10.0,89,0.00,,,0.73,Wunderground v.1.15,2013-07-10 05:06:00,
2013-07-10 01:07:00,71.7,68.3,29.93,South,175,2.0,10.0,89,0.00,,,0.73,Wunderground v.1.15,2013-07-10 05:07:00,
2013-07-10 01:09:00,71.7,68.3,29.93,South,175,2.0,10.0,89,0.00,,,0.73,Wunderground v.1.15,2013-07-10 05:09:00,
2013-07-10 01:10:00,71.7,68.3,29.93,South,175,2.0,10.0,89,0.00,,,0.73,Wunderground v.1.15,2013-07-10 05:10:00,
2013-07-10 01:12:00,71.7,68.3,29.93,South,176,2.0,10.0,89,0.00,,,0.73,Wunderground v.1.15,2013-07-10 05:12:00,
2013-07-10 01:15:00,71.7,68.3,29.93,South,175,2.0,10.0,89,0.00,,,0.73,Wunderground v.1.15,2013-07-10 05:15:00,
2013-07-10 01:16:00,71.7,68.3,29.92,SSE,150,2.0,10.0,89,0.00,,,0.73,Wunderground v.1.15,2013-07-10 05:16:00,
2013-07-10 01:18:00,71.6,68.2,29.92,SE,146,3.0,10.0,89,0.00,,,0.73,Wunderground v.1.15,2013-07-10 05:18:00,
2013-07-10 01:19:00,71.6,68.2,29.92,SE,146,3.0,10.0,89,0.00,,,0.73,Wunderground v.1.15,2013-07-10 05:19:00,
2013-07-10 01:20:00,71.6,68.2,29.92,SE,146,3.0,3.0,89,0.00,,,0.73,Wunderground v.1.15,2013-07-10 05:20:00,
2013-07-10 01:21:00,71.6,68.2,29.92,SE,146,3.0,10.0,89,0.00,,,0.73,Wunderground v.1.15,2013-07-10 05:21:00,
2013-07-10 01:24:00,71.6,68.2,29.92,SE,146,2.0,10.0,89,0.00,,,0.73,Wunderground v.1.15,2013-07-10 05:24:00,
2013-07-10 01:26:00,71.6,68.2,29.92,ESE,123,2.0,10.0,89,0.00,,,0.73,Wunderground v.1.15,2013-07-10 05:26:00,
2013-07-10 01:27:00,71.6,68.2,29.92,ESE,123,2.0,10.0,89,0.00,,,0.73,Wunderground v.1.15,2013-07-10 05:27:00,
2013-07-10 01:28:00,71.6,68.2,29.92,SE,138,2.0,10.0,89,0.00,,,0.73,Wunderground v.1.15,2013-07-10 05:28:00,
2013-07-10 01:29:00,71.5,68.1,29.92,SE,138,3.0,10.0,89,0.00,,,0.73,Wunderground v.1.15,2013-07-10 05:29:00,
2013-07-10 01:30:00,71.6,68.2,29.92,SE,138,3.0,3.0,89,0.00,,,0.73,Wunderground v.1.15,2013-07-10 05:30:00,
2013-07-10 01:31:00,71.5,68.1,29.92,SSE,156,3.0,5.0,89,0.00,,,0.73,Wunderground v.1.15,2013-07-10 05:31:00,
2013-07-10 01:35:00,71.5,68.1,29.92,SE,136,3.0,10.0,89,0.00,,,0.00,Wunderground v.1.15,2013-07-10 05:35:00,
2013-07-10 01:39:00,71.5,68.4,29.91,SE,146,3.0,10.0,90,0.00,,,0.00,Wunderground v.1.15,2013-07-10 05:39:00,
2013-07-10 01:40:00,71.5,68.4,29.91,SSE,168,3.0,10.0,90,0.00,,,0.00,Wunderground v.1.15,2013-07-10 05:40:00,
2013-07-10 01:42:00,71.4,68.3,29.91,South,169,4.0,10.0,90,0.00,,,0.00,Wunderground v.1.15,2013-07-10 05:42:00,
2013-07-10 01:43:00,71.4,68.3,29.91,SSE,151,4.0,10.0,90,0.00,,,0.00,Wunderground v.1.15,2013-07-10 05:43:00,
2013-07-10 01:44:00,71.4,68.3,29.91,South,169,5.0,10.0,90,0.00,,,0.00,Wunderground v.1.15,2013-07-10 05:44:00,
2013-07-10 01:48:00,71.4,68.3,29.91,SSE,150,6.0,10.0,90,0.00,,,0.00,Wunderground v.1.15,2013-07-10 05:48:00,
2013-07-10 01:49:00,71.4,68.3,29.91,SE,145,6.0,10.0,90,0.00,,,0.00,Wunderground v.1.15,2013-07-10 05:49:00,
2013-07-10 01:50:00,71.3,68.2,29.91,SE,138,6.0,10.0,90,0.00,,,0.00,Wunderground v.1.15,2013-07-10 05:50:00,
2013-07-10 01:51:00,71.3,68.2,29.91,SSE,150,6.0,10.0,90,0.00,,,0.00,Wunderground v.1.15,2013-07-10 05:51:00,
2013-07-10 01:56:00,71.3,68.2,29.91,SE,130,4.0,10.0,90,0.00,,,0.00,Wunderground v.1.15,2013-07-10 05:56:00,
2013-07-10 01:57:00,71.3,68.2,29.91,SSE,147,4.0,10.0,90,0.00,,,0.00,Wunderground v.1.15,2013-07-10 05:57:00,
2013-07-10 01:58:00,71.3,68.2,29.91,SSE,147,4.0,10.0,90,0.00,,,0.00,Wunderground v.1.15,2013-07-10 05:58:00,
2013-07-10 02:02:00,71.3,68.2,29.91,SSE,148,2.0,12.0,90,0.00,,,0.00,Wunderground v.1.15,2013-07-10 06:02:00,
2013-07-10 02:03:00,71.3,68.2,29.91,SSE,161,2.0,12.0,90,0.00,,,0.00,Wunderground v.1.15,2013-07-10 06:03:00,
2013-07-10 02:05:00,71.2,68.1,29.91,SSE,150,2.0,12.0,90,0.00,,,0.00,Wunderground v.1.15,2013-07-10 06:05:00,
2013-07-10 02:08:00,71.2,68.1,29.91,SSE,160,2.0,12.0,90,0.00,,,0.00,Wunderground v.1.15,2013-07-10 06:08:00,
2013-07-10 02:09:00,71.2,68.1,29.91,South,170,3.0,12.0,90,0.00,,,0.00,Wunderground v.1.15,2013-07-10 06:09:00,
2013-07-10 02:11:00,71.1,68.0,29.91,SSE,155,3.0,4.0,90,0.00,,,0.00,Wunderground v.1.15,2013-07-10 06:11:00,
2013-07-10 02:12:00,71.1,68.0,29.91,SSE,163,4.0,12.0,90,0.00,,,0.00,Wunderground v.1.15,2013-07-10 06:12:00,
2013-07-10 02:14:00,71.1,68.0,29.90,SSE,147,4.0,12.0,90,0.00,,,0.00,Wunderground v.1.15,2013-07-10 06:14:00,
2013-07-10 02:16:00,71.1,68.0,29.90,SSE,148,3.0,12.0,90,0.00,,,0.00,Wunderground v.1.15,2013-07-10 06:16:00,
2013-07-10 02:17:00,71.1,68.0,29.90,SSE,148,3.0,12.0,90,0.00,,,0.00,Wunderground v.1.15,2013-07-10 06:17:00,
2013-07-10 02:20:00,71.1,68.0,29.90,SSE,148,2.0,12.0,90,0.00,,,0.00,Wunderground v.1.15,2013-07-10 06:20:00,
2013-07-10 02:21:00,71.1,68.0,29.90,SSE,147,2.0,12.0,90,0.00,,,0.00,Wunderground v.1.15,2013-07-10 06:21:00,
2013-07-10 02:22:00,71.0,67.9,29.90,East,101,2.0,12.0,90,0.00,,,0.00,Wunderground v.1.15,2013-07-10 06:22:00,
2013-07-10 02:23:00,71.0,67.9,29.90,ESE,105,2.0,12.0,90,0.00,,,0.00,Wunderground v.1.15,2013-07-10 06:23:00,
2013-07-10 02:25:00,71.0,67.9,29.90,ESE,115,3.0,12.0,90,0.00,,,0.00,Wunderground v.1.15,2013-07-10 06:25:00,
2013-07-10 02:29:00,71.0,67.9,29.90,SSE,154,3.0,12.0,90,0.00,,,0.00,Wunderground v.1.15,2013-07-10 06:29:00,
2013-07-10 02:30:00,71.0,67.9,29.90,SSE,154,3.0,12.0,90,0.00,,,0.00,Wunderground v.1.15,2013-07-10 06:30:00,
2013-07-10 02:31:00,71.0,67.9,29.90,SE,141,3.0,12.0,90,0.00,,,0.00,Wunderground v.1.15,2013-07-10 06:31:00,
2013-07-10 02:32:00,71.0,67.9,29.90,SE,141,3.0,12.0,90,0.00,,,0.00,Wunderground v.1.15,2013-07-10 06:32:00,
2013-07-10 02:35:00,71.0,68.2,29.90,SSE,162,4.0,12.0,91,0.00,,,0.00,Wunderground v.1.15,2013-07-10 06:35:00,
2013-07-10 02:36:00,71.0,68.2,29.90,SSE,162,4.0,12.0,91,0.00,,,0.00,Wunderground v.1.15,2013-07-10 06:36:00,
2013-07-10 02:37:00,71.0,68.2,29.90,SSE,161,4.0,12.0,91,0.00,,,0.00,Wunderground v.1.15,2013-07-10 06:37:00,
2013-07-10 02:39:00,71.0,68.2,29.90,SSE,148,4.0,12.0,91,0.00,,,0.00,Wunderground v.1.15,2013-07-10 06:39:00,
2013-07-10 02:42:00,71.0,68.2,29.90,SE,142,4.0,12.0,91,0.00,,,0.00,Wunderground v.1.15,2013-07-10 06:42:00,
2013-07-10 02:44:00,71.0,68.2,29.89,SE,132,4.0,12.0,91,0.00,,,0.00,Wunderground v.1.15,2013-07-10 06:44:00,
2013-07-10 02:46:00,71.0,68.2,29.90,SSE,152,5.0,12.0,91,0.00,,,0.00,Wunderground v.1.15,2013-07-10 06:46:00,
2013-07-10 02:48:00,71.0,68.2,29.90,SSE,152,4.0,12.0,91,0.00,,,0.00,Wunderground v.1.15,2013-07-10 06:48:00,
2013-07-10 02:50:00,71.0,68.2,29.90,SE,145,4.0,12.0,91,0.00,,,0.00,Wunderground v.1.15,2013-07-10 06:50:00,
2013-07-10 02:53:00,70.9,68.1,29.89,SSE,155,4.0,12.0,91,0.00,,,0.00,Wunderground v.1.15,2013-07-10 06:53:00,
2013-07-10 02:56:00,70.9,68.1,29.89,SSE,157,4.0,12.0,91,0.00,,,0.00,Wunderground v.1.15,2013-07-10 06:56:00,
2013-07-10 02:57:00,70.9,68.1,29.89,SSE,157,4.0,12.0,91,0.00,,,0.00,Wunderground v.1.15,2013-07-10 06:57:00,
2013-07-10 02:58:00,70.8,68.0,29.89,South,174,4.0,12.0,91,0.00,,,0.00,Wunderground v.1.15,2013-07-10 06:58:00,
2013-07-10 03:02:00,70.8,68.0,29.89,South,173,5.0,10.0,91,0.00,,,0.00,Wunderground v.1.15,2013-07-10 07:02:00,
2013-07-10 03:04:00,70.7,67.9,29.89,SSE,164,5.0,10.0,91,0.00,,,0.00,Wunderground v.1.15,2013-07-10 07:04:00,
2013-07-10 03:06:00,70.7,67.9,29.89,SE,138,5.0,10.0,91,0.00,,,0.00,Wunderground v.1.15,2013-07-10 07:06:00,
2013-07-10 03:07:00,70.7,67.9,29.89,SSE,148,6.0,10.0,91,0.00,,,0.00,Wunderground v.1.15,2013-07-10 07:07:00,
2013-07-10 03:08:00,70.7,67.9,29.89,SSE,154,6.0,10.0,91,0.00,,,0.00,Wunderground v.1.15,2013-07-10 07:08:00,
2013-07-10 03:10:00,70.7,67.9,29.89,SE,138,6.0,10.0,91,0.00,,,0.00,Wunderground v.1.15,2013-07-10 07:10:00,
2013-07-10 03:11:00,70.7,67.9,29.89,SE,136,6.0,10.0,91,0.00,,,0.00,Wunderground v.1.15,2013-07-10 07:11:00,
2013-07-10 03:12:00,70.7,67.9,29.89,SE,137,6.0,10.0,91,0.00,,,0.00,Wunderground v.1.15,2013-07-10 07:12:00,
2013-07-10 03:15:00,70.6,67.8,29.89,SSE,159,6.0,10.0,91,0.00,,,0.00,Wunderground v.1.15,2013-07-10 07:15:00,
2013-07-10 03:16:00,70.6,67.8,29.90,SSE,159,5.0,10.0,91,0.00,,,0.00,Wunderground v.1.15,2013-07-10 07:16:00,
2013-07-10 03:17:00,70.6,67.8,29.90,South,170,5.0,10.0,91,0.00,,,0.00,Wunderground v.1.15,2013-07-10 07:17:00,
2013-07-10 03:18:00,70.5,67.7,29.89,South,169,5.0,10.0,91,0.00,,,0.00,Wunderground v.1.15,2013-07-10 07:18:00,
2013-07-10 03:20:00,70.5,68.1,29.89,SSE,161,5.0,10.0,92,0.00,,,0.00,Wunderground v.1.15,2013-07-10 07:20:00,
2013-07-10 03:22:00,70.5,67.7,29.89,SSE,161,4.0,10.0,91,0.00,,,0.00,Wunderground v.1.15,2013-07-10 07:22:00,
2013-07-10 03:23:00,70.5,67.7,29.89,SSE,157,5.0,10.0,91,0.00,,,0.00,Wunderground v.1.15,2013-07-10 07:23:00,
2013-07-10 03:24:00,70.5,67.7,29.89,SSE,153,5.0,10.0,91,0.00,,,0.00,Wunderground v.1.15,2013-07-10 07:24:00,
2013-07-10 03:27:00,70.5,67.7,29.89,SSE,155,5.0,10.0,91,0.00,,,0.00,Wunderground v.1.15,2013-07-10 07:27:00,
2013-07-10 03:29:00,70.4,67.6,29.89,SSE,156,5.0,10.0,91,0.00,,,0.00,Wunderground v.1.15,2013-07-10 07:29:00,
2013-07-10 03:30:00,70.4,68.0,29.89,SSE,156,4.0,10.0,92,0.00,,,0.00,Wunderground v.1.15,2013-07-10 07:30:00,
2013-07-10 03:33:00,70.4,67.6,29.89,South,173,5.0,10.0,91,0.00,,,0.00,Wunderground v.1.15,2013-07-10 07:33:00,
2013-07-10 03:35:00,70.4,67.6,29.89,SE,143,5.0,10.0,91,0.00,,,0.00,Wunderground v.1.15,2013-07-10 07:35:00,
2013-07-10 03:38:00,70.3,67.9,29.89,ESE,110,4.0,10.0,92,0.00,,,0.00,Wunderground v.1.15,2013-07-10 07:38:00,
2013-07-10 03:39:00,70.3,67.9,29.89,ESE,110,4.0,10.0,92,0.00,,,0.00,Wunderground v.1.15,2013-07-10 07:39:00,
2013-07-10 03:42:00,70.3,67.9,29.89,SSE,157,3.0,10.0,92,0.00,,,0.00,Wunderground v.1.15,2013-07-10 07:42:00,
2013-07-10 03:45:00,70.3,67.9,29.89,SSE,155,3.0,10.0,92,0.00,,,0.00,Wunderground v.1.15,2013-07-10 07:45:00,
2013-07-10 03:46:00,70.3,67.9,29.89,SE,134,3.0,10.0,92,0.00,,,0.00,Wunderground v.1.15,2013-07-10 07:46:00,
2013-07-10 03:48:00,70.3,67.9,29.88,SSE,151,3.0,10.0,92,0.00,,,0.00,Wunderground v.1.15,2013-07-10 07:48:00,
2013-07-10 03:50:00,70.3,67.9,29.88,SE,140,4.0,10.0,92,0.00,,,0.00,Wunderground v.1.15,2013-07-10 07:50:00,
2013-07-10 03:51:00,70.3,67.9,29.88,SSE,157,5.0,10.0,92,0.00,,,0.00,Wunderground v.1.15,2013-07-10 07:51:00,
2013-07-10 03:53:00,70.3,67.9,29.88,SSE,154,5.0,10.0,92,0.00,,,0.00,Wunderground v.1.15,2013-07-10 07:53:00,
2013-07-10 03:57:00,70.3,67.9,29.88,South,169,6.0,10.0,92,0.00,,,0.00,Wunderground v.1.15,2013-07-10 07:57:00,
2013-07-10 03:58:00,70.3,67.9,29.88,SSE,149,6.0,10.0,92,0.00,,,0.00,Wunderground v.1.15,2013-07-10 07:58:00,
2013-07-10 03:59:00,70.2,67.8,29.88,ESE,115,5.0,10.0,92,0.00,,,0.00,Wunderground v.1.15,2013-07-10 07:59:00,
2013-07-10 04:01:00,70.3,67.9,29.87,ESE,114,4.0,11.0,92,0.00,,,0.00,Wunderground v.1.15,2013-07-10 08:01:00,
2013-07-10 04:05:00,70.2,67.8,29.87,SE,146,3.0,11.0,92,0.00,,,0.00,Wunderground v.1.15,2013-07-10 08:05:00,
2013-07-10 04:06:00,70.2,67.8,29.87,SSE,165,3.0,11.0,92,0.00,,,0.00,Wunderground v.1.15,2013-07-10 08:06:00,
2013-07-10 04:08:00,70.2,67.8,29.87,SSE,167,3.0,11.0,92,0.00,,,0.00,Wunderground v.1.15,2013-07-10 08:08:00,
2013-07-10 04:09:00,70.2,67.8,29.88,SSE,159,3.0,11.0,92,0.00,,,0.00,Wunderground v.1.15,2013-07-10 08:09:00,
2013-07-10 04:12:00,70.1,67.7,29.88,South,178,5.0,11.0,92,0.00,,,0.00,Wunderground v.1.15,2013-07-10 08:12:00,
2013-07-10 04:14:00,70.1,67.7,29.88,SSE,157,5.0,11.0,92,0.00,,,0.00,Wunderground v.1.15,2013-07-10 08:14:00,
2013-07-10 04:15:00,70.1,67.7,29.88,SSE,156,5.0,11.0,92,0.00,,,0.00,Wunderground v.1.15,2013-07-10 08:15:00,
2013-07-10 04:18:00,70.1,67.7,29.88,SE,142,5.0,11.0,92,0.00,,,0.00,Wunderground v.1.15,2013-07-10 08:18:00,
2013-07-10 04:19:00,70.0,67.6,29.88,SSE,156,4.0,11.0,92,0.00,,,0.00,Wunderground v.1.15,2013-07-10 08:19:00,
2013-07-10 04:20:00,70.1,67.7,29.88,SSE,163,4.0,11.0,92,0.00,,,0.00,Wunderground v.1.15,2013-07-10 08:20:00,
2013-07-10 04:21:00,70.0,67.6,29.88,SSE,163,4.0,11.0,92,0.00,,,0.00,Wunderground v.1.15,2013-07-10 08:21:00,
2013-07-10 04:22:00,70.0,67.6,29.88,SSE,163,4.0,11.0,92,0.00,,,0.00,Wunderground v.1.15,2013-07-10 08:22:00,
2013-07-10 04:24:00,70.0,67.9,29.88,SSE,155,4.0,11.0,93,0.00,,,0.00,Wunderground v.1.15,2013-07-10 08:24:00,
2013-07-10 04:27:00,69.9,67.5,29.88,SE,142,3.0,11.0,92,0.00,,,0.00,Wunderground v.1.15,2013-07-10 08:27:00,
2013-07-10 04:28:00,69.9,67.8,29.88,SE,142,3.0,11.0,93,0.00,,,0.00,Wunderground v.1.15,2013-07-10 08:28:00,
2013-07-10 04:29:00,70.0,67.9,29.88,SE,142,3.0,11.0,93,0.00,,,0.00,Wunderground v.1.15,2013-07-10 08:29:00,
2013-07-10 04:32:00,69.9,67.8,29.88,SSE,151,3.0,11.0,93,0.00,,,0.00,Wunderground v.1.15,2013-07-10 08:32:00,
2013-07-10 04:34:00,69.9,67.8,29.88,SSE,153,3.0,11.0,93,0.00,,,0.00,Wunderground v.1.15,2013-07-10 08:34:00,
2013-07-10 04:35:00,69.9,67.8,29.88,SSE,152,2.0,11.0,93,0.00,,,0.00,Wunderground v.1.15,2013-07-10 08:35:00,
2013-07-10 04:37:00,69.9,67.8,29.88,SSE,167,2.0,11.0,93,0.00,,,0.00,Wunderground v.1.15,2013-07-10 08:37:00,
2013-07-10 04:39:00,69.9,67.8,29.88,SSE,163,3.0,11.0,93,0.00,,,0.00,Wunderground v.1.15,2013-07-10 08:39:00,
2013-07-10 04:43:00,69.9,67.5,29.88,SSE,153,3.0,11.0,92,0.00,,,0.00,Wunderground v.1.15,2013-07-10 08:43:00,
2013-07-10 04:44:00,69.9,67.5,29.88,SSE,153,3.0,11.0,92,0.00,,,0.00,Wunderground v.1.15,2013-07-10 08:44:00,
2013-07-10 04:45:00,69.9,67.8,29.88,South,169,4.0,11.0,93,0.00,,,0.00,Wunderground v.1.15,2013-07-10 08:45:00,
2013-07-10 04:49:00,69.9,67.8,29.88,SSE,162,5.0,11.0,93,0.00,,,0.00,Wunderground v.1.15,2013-07-10 08:49:00,
2013-07-10 04:50:00,69.9,67.8,29.88,SSE,165,5.0,5.0,93,0.00,,,0.00,Wunderground v.1.15,2013-07-10 08:50:00,
2013-07-10 04:53:00,69.9,67.8,29.88,SSE,168,4.0,11.0,93,0.00,,,0.00,Wunderground v.1.15,2013-07-10 08:53:00,
2013-07-10 04:54:00,69.9,67.8,29.88,SSE,167,5.0,11.0,93,0.00,,,0.00,Wunderground v.1.15,2013-07-10 08:54:00,
2013-07-10 04:56:00,69.8,67.7,29.88,SSE,167,4.0,11.0,93,0.00,,,0.00,Wunderground v.1.15,2013-07-10 08:56:00,
2013-07-10 04:59:00,69.9,67.8,29.88,SSE,155,3.0,11.0,93,0.00,,,0.00,Wunderground v.1.15,2013-07-10 08:59:00,
2013-07-10 05:00:00,69.9,67.8,29.88,SSE,155,3.0,3.0,93,0.00,,,0.00,Wunderground v.1.15,2013-07-10 09:00:00,
2013-07-10 05:03:00,69.9,67.8,29.88,SSE,155,3.0,11.0,93,0.00,,,0.00,Wunderground v.1.15,2013-07-10 09:03:00,
2013-07-10 05:06:00,69.9,67.8,29.88,SSE,157,4.0,11.0,93,0.00,,,0.00,Wunderground v.1.15,2013-07-10 09:06:00,
2013-07-10 05:08:00,69.9,67.8,29.87,SSE,165,5.0,11.0,93,0.00,,,0.00,Wunderground v.1.15,2013-07-10 09:08:00,
2013-07-10 05:10:00,69.8,67.7,29.87,SSE,164,4.0,4.0,93,0.00,,,0.00,Wunderground v.1.15,2013-07-10 09:10:00,
2013-07-10 05:13:00,69.8,67.7,29.87,SSE,151,5.0,11.0,93,0.00,,,0.00,Wunderground v.1.15,2013-07-10 09:13:00,
2013-07-10 05:16:00,69.8,67.7,29.87,SSE,150,5.0,11.0,93,0.00,,,0.00,Wunderground v.1.15,2013-07-10 09:16:00,
2013-07-10 05:17:00,69.8,67.7,29.87,SSE,165,4.0,11.0,93,0.00,,,0.00,Wunderground v.1.15,2013-07-10 09:17:00,
2013-07-10 05:18:00,69.8,67.7,29.87,SSE,165,4.0,11.0,93,0.00,,,0.00,Wunderground v.1.15,2013-07-10 09:18:00,
2013-07-10 05:19:00,69.8,67.7,29.87,SSE,155,5.0,11.0,93,0.00,,,0.00,Wunderground v.1.15,2013-07-10 09:19:00,
2013-07-10 05:21:00,69.8,67.7,29.88,SSE,155,5.0,11.0,93,0.00,,,0.00,Wunderground v.1.15,2013-07-10 09:21:00,
2013-07-10 05:23:00,69.9,67.8,29.88,South,179,5.0,11.0,93,0.00,,,0.00,Wunderground v.1.15,2013-07-10 09:23:00,
2013-07-10 05:24:00,69.9,67.8,29.88,South,179,4.0,11.0,93,0.00,,,0.00,Wunderground v.1.15,2013-07-10 09:24:00,
2013-07-10 05:25:00,69.9,67.8,29.88,South,179,4.0,11.0,93,0.00,,,0.00,Wunderground v.1.15,2013-07-10 09:25:00,
2013-07-10 05:27:00,69.9,67.8,29.87,South,179,4.0,11.0,93,0.00,,,0.00,Wunderground v.1.15,2013-07-10 09:27:00,
2013-07-10 05:28:00,69.9,67.8,29.87,South,179,4.0,11.0,93,0.00,,,0.00,Wunderground v.1.15,2013-07-10 09:28:00,
2013-07-10 05:29:00,69.9,67.8,29.87,South,179,3.0,11.0,93,0.00,,,0.00,Wunderground v.1.15,2013-07-10 09:29:00,
2013-07-10 05:31:00,69.9,67.8,29.87,SSE,155,3.0,11.0,93,0.00,,,0.00,Wunderground v.1.15,2013-07-10 09:31:00,
2013-07-10 05:33:00,69.9,67.8,29.87,South,169,3.0,11.0,93,0.00,,,0.00,Wunderground v.1.15,2013-07-10 09:33:00,
2013-07-10 05:36:00,69.9,67.8,29.87,South,171,4.0,11.0,93,0.00,,,0.00,Wunderground v.1.15,2013-07-10 09:36:00,
2013-07-10 05:37:00,69.9,67.8,29.87,South,176,5.0,11.0,93,0.00,,,0.00,Wunderground v.1.15,2013-07-10 09:37:00,
2013-07-10 05:38:00,69.9,67.8,29.87,South,169,5.0,11.0,93,0.00,,,0.00,Wunderground v.1.15,2013-07-10 09:38:00,
2013-07-10 05:39:00,69.9,67.8,29.87,South,173,6.0,11.0,93,0.00,,,0.00,Wunderground v.1.15,2013-07-10 09:39:00,
2013-07-10 05:40:00,69.9,67.8,29.87,SSE,166,6.0,11.0,93,0.00,,,0.00,Wunderground v.1.15,2013-07-10 09:40:00,
2013-07-10 05:44:00,69.9,67.8,29.87,SSE,157,7.0,11.0,93,0.00,,,0.00,Wunderground v.1.15,2013-07-10 09:44:00,
2013-07-10 05:46:00,69.9,67.8,29.87,SSE,157,6.0,11.0,93,0.00,,,0.00,Wunderground v.1.15,2013-07-10 09:46:00,
2013-07-10 05:48:00,69.9,67.8,29.87,South,178,5.0,11.0,93,0.00,,,0.00,Wunderground v.1.15,2013-07-10 09:48:00,
2013-07-10 05:49:00,69.8,67.7,29.87,South,178,5.0,11.0,93,0.00,,,0.00,Wunderground v.1.15,2013-07-10 09:49:00,
2013-07-10 05:50:00,69.8,67.7,29.87,South,175,5.0,5.0,93,0.00,,,0.00,Wunderground v.1.15,2013-07-10 09:50:00,
2013-07-10 05:52:00,69.8,67.7,29.87,South,175,4.0,11.0,93,0.00,,,0.00,Wunderground v.1.15,2013-07-10 09:52:00,
2013-07-10 05:53:00,69.9,67.8,29.88,SSE,148,3.0,11.0,93,0.00,,,0.00,Wunderground v.1.15,2013-07-10 09:53:00,
2013-07-10 05:55:00,69.8,67.7,29.87,SSE,150,4.0,11.0,93,0.00,,,0.00,Wunderground v.1.15,2013-07-10 09:55:00,
2013-07-10 05:56:00,69.8,67.7,29.87,SE,133,5.0,11.0,93,0.00,,,0.00,Wunderground v.1.15,2013-07-10 09:56:00,
2013-07-10 06:00:00,69.8,67.7,29.87,SE,134,6.0,12.0,93,0.00,,,0.00,Wunderground v.1.15,2013-07-10 10:00:00,
2013-07-10 06:02:00,69.8,67.7,29.87,SSE,153,6.0,12.0,93,0.00,,,0.00,Wunderground v.1.15,2013-07-10 10:02:00,
2013-07-10 06:03:00,69.8,67.7,29.87,SSE,153,6.0,12.0,93,0.00,,,0.00,Wunderground v.1.15,2013-07-10 10:03:00,
2013-07-10 06:06:00,69.8,67.7,29.87,SSE,165,6.0,12.0,93,0.00,,,0.00,Wunderground v.1.15,2013-07-10 10:06:00,
2013-07-10 06:07:00,69.8,67.7,29.87,SE,138,6.0,12.0,93,0.00,,,0.00,Wunderground v.1.15,2013-07-10 10:07:00,
2013-07-10 06:09:00,69.8,67.7,29.87,SSE,148,6.0,12.0,93,0.00,,,0.00,Wunderground v.1.15,2013-07-10 10:09:00,
2013-07-10 06:10:00,69.8,67.7,29.87,South,172,6.0,12.0,93,0.00,,,0.00,Wunderground v.1.15,2013-07-10 10:10:00,
2013-07-10 06:12:00,69.9,67.8,29.87,SE,137,6.0,12.0,93,0.00,,,0.00,Wunderground v.1.15,2013-07-10 10:12:00,
2013-07-10 06:15:00,69.9,67.8,29.87,SSE,157,5.0,12.0,93,0.00,,,0.00,Wunderground v.1.15,2013-07-10 10:15:00,
2013-07-10 06:16:00,69.9,67.8,29.87,SSE,157,5.0,12.0,93,0.00,,,0.00,Wunderground v.1.15,2013-07-10 10:16:00,
2013-07-10 06:19:00,69.9,67.8,29.87,SSE,148,4.0,12.0,93,0.00,,,0.00,Wunderground v.1.15,2013-07-10 10:19:00,
2013-07-10 06:21:00,69.9,67.8,29.87,SSE,153,4.0,12.0,93,0.00,,,0.00,Wunderground v.1.15,2013-07-10 10:21:00,
2013-07-10 06:23:00,69.9,67.8,29.87,SSE,155,4.0,12.0,93,0.00,,,0.00,Wunderground v.1.15,2013-07-10 10:23:00,
2013-07-10 06:24:00,70.0,67.9,29.87,SE,145,5.0,12.0,93,0.00,,,0.00,Wunderground v.1.15,2013-07-10 10:24:00,
2013-07-10 06:25:00,70.0,67.9,29.87,SSE,159,6.0,12.0,93,0.00,,,0.00,Wunderground v.1.15,2013-07-10 10:25:00,
2013-07-10 06:27:00,70.0,67.9,29.87,SE,143,6.0,12.0,93,0.00,,,0.00,Wunderground v.1.15,2013-07-10 10:27:00,
2013-07-10 06:29:00,70.0,67.9,29.87,SSE,150,6.0,12.0,93,0.00,,,0.00,Wunderground v.1.15,2013-07-10 10:29:00,
2013-07-10 06:30:00,70.0,67.9,29.86,SSE,149,6.0,6.0,93,0.00,,,0.00,Wunderground v.1.15,2013-07-10 10:30:00,
2013-07-10 06:31:00,70.0,67.9,29.87,SSE,149,5.0,12.0,93,0.00,,,0.00,Wunderground v.1.15,2013-07-10 10:31:00,
2013-07-10 06:33:00,70.0,67.9,29.86,SSE,154,5.0,12.0,93,0.00,,,0.00,Wunderground v.1.15,2013-07-10 10:33:00,
2013-07-10 06:37:00,70.1,68.0,29.86,SSE,153,3.0,12.0,93,0.00,,,0.00,Wunderground v.1.15,2013-07-10 10:37:00,
2013-07-10 06:38:00,70.1,68.0,29.86,South,169,3.0,12.0,93,0.00,,,0.00,Wunderground v.1.15,2013-07-10 10:38:00,
2013-07-10 06:40:00,70.1,68.0,29.86,South,169,4.0,12.0,93,0.00,,,0.00,Wunderground v.1.15,2013-07-10 10:40:00,
2013-07-10 06:43:00,70.1,68.0,29.86,SSE,160,4.0,12.0,93,0.00,,,0.00,Wunderground v.1.15,2013-07-10 10:43:00,
2013-07-10 06:45:00,70.2,68.1,29.86,SSE,159,5.0,12.0,93,0.00,,,0.00,Wunderground v.1.15,2013-07-10 10:45:00,
2013-07-10 06:46:00,70.2,68.1,29.86,South,175,6.0,12.0,93,0.00,,,0.00,Wunderground v.1.15,2013-07-10 10:46:00,
2013-07-10 06:47:00,70.2,68.1,29.86,South,180,6.0,12.0,93,0.00,,,0.00,Wunderground v.1.15,2013-07-10 10:47:00,
2013-07-10 06:49:00,70.2,68.1,29.86,SSE,155,6.0,12.0,93,0.00,,,0.00,Wunderground v.1.15,2013-07-10 10:49:00,
2013-07-10 06:50:00,70.2,68.1,29.86,SSE,155,6.0,12.0,93,0.00,,,0.00,Wunderground v.1.15,2013-07-10 10:50:00,
2013-07-10 06:51:00,70.2,68.1,29.86,SSE,152,6.0,12.0,93,0.00,,,0.00,Wunderground v.1.15,2013-07-10 10:51:00,
2013-07-10 06:52:00,70.3,68.2,29.86,SSE,153,6.0,12.0,93,0.00,,,0.00,Wunderground v.1.15,2013-07-10 10:52:00,
2013-07-10 06:55:00,70.3,68.2,29.86,SSE,163,5.0,12.0,93,0.00,,,0.00,Wunderground v.1.15,2013-07-10 10:55:00,
2013-07-10 06:57:00,70.3,68.2,29.86,SSE,152,5.0,12.0,93,0.00,,,0.00,Wunderground v.1.15,2013-07-10 10:57:00,
2013-07-10 06:58:00,70.3,68.2,29.86,South,173,5.0,12.0,93,0.00,,,0.00,Wunderground v.1.15,2013-07-10 10:58:00,
2013-07-10 07:00:00,70.4,68.3,29.86,South,175,5.0,5.0,93,0.00,,,0.00,Wunderground v.1.15,2013-07-10 11:00:00,
2013-07-10 07:04:00,70.4,68.3,29.86,South,174,5.0,12.0,93,0.00,,,0.00,Wunderground v.1.15,2013-07-10 11:04:00,
2013-07-10 07:05:00,70.4,68.3,29.86,South,175,5.0,12.0,93,0.00,,,0.00,Wunderground v.1.15,2013-07-10 11:05:00,
2013-07-10 07:06:00,70.4,68.3,29.86,South,172,5.0,12.0,93,0.00,,,0.00,Wunderground v.1.15,2013-07-10 11:06:00,
2013-07-10 07:08:00,70.4,68.3,29.86,South,174,5.0,12.0,93,0.00,,,0.00,Wunderground v.1.15,2013-07-10 11:08:00,
2013-07-10 07:12:00,70.4,68.3,29.86,SSE,157,5.0,12.0,93,0.00,,,0.00,Wunderground v.1.15,2013-07-10 11:12:00,
2013-07-10 07:13:00,70.4,68.3,29.86,SSE,165,5.0,12.0,93,0.00,,,0.00,Wunderground v.1.15,2013-07-10 11:13:00,
2013-07-10 07:15:00,70.4,68.3,29.86,South,178,6.0,12.0,93,0.00,,,0.00,Wunderground v.1.15,2013-07-10 11:15:00,
2013-07-10 07:17:00,70.5,68.4,29.86,SE,140,7.0,12.0,93,0.00,,,0.00,Wunderground v.1.15,2013-07-10 11:17:00,
2013-07-10 07:18:00,70.5,68.4,29.86,South,180,7.0,12.0,93,0.00,,,0.00,Wunderground v.1.15,2013-07-10 11:18:00,
2013-07-10 07:22:00,70.5,68.4,29.86,SSE,161,8.0,12.0,93,0.00,,,0.00,Wunderground v.1.15,2013-07-10 11:22:00,
2013-07-10 07:24:00,70.5,68.4,29.86,SSE,159,8.0,12.0,93,0.00,,,0.00,Wunderground v.1.15,2013-07-10 11:24:00,
2013-07-10 07:25:00,70.5,68.4,29.86,SSE,156,8.0,12.0,93,0.00,,,0.00,Wunderground v.1.15,2013-07-10 11:25:00,
2013-07-10 07:26:00,70.6,68.5,29.86,SE,131,8.0,12.0,93,0.00,,,0.00,Wunderground v.1.15,2013-07-10 11:26:00,
2013-07-10 07:27:00,70.6,68.5,29.86,SSE,157,8.0,12.0,93,0.00,,,0.00,Wunderground v.1.15,2013-07-10 11:27:00,
2013-07-10 07:29:00,70.6,68.5,29.86,SSE,159,8.0,12.0,93,0.00,,,0.00,Wunderground v.1.15,2013-07-10 11:29:00,
2013-07-10 07:31:00,70.7,68.6,29.86,SSE,158,8.0,12.0,93,0.00,,,0.00,Wunderground v.1.15,2013-07-10 11:31:00,
2013-07-10 07:33:00,70.7,68.6,29.86,SSE,164,9.0,12.0,93,0.00,,,0.00,Wunderground v.1.15,2013-07-10 11:33:00,
2013-07-10 07:34:00,70.7,68.6,29.86,South,180,8.0,12.0,93,0.00,,,0.00,Wunderground v.1.15,2013-07-10 11:34:00,
2013-07-10 07:35:00,70.7,68.6,29.86,SSE,153,8.0,12.0,93,0.00,,,0.00,Wunderground v.1.15,2013-07-10 11:35:00,
2013-07-10 07:36:00,70.7,68.6,29.86,SSE,163,8.0,12.0,93,0.00,,,0.00,Wunderground v.1.15,2013-07-10 11:36:00,
2013-07-10 07:37:00,70.6,68.5,29.86,South,181,8.0,12.0,93,0.00,,,0.00,Wunderground v.1.15,2013-07-10 11:37:00,
2013-07-10 07:38:00,70.7,68.6,29.86,SSE,154,8.0,12.0,93,0.00,,,0.00,Wunderground v.1.15,2013-07-10 11:38:00,
2013-07-10 07:40:00,70.7,68.6,29.86,SSE,152,8.0,8.0,93,0.00,,,0.00,Wunderground v.1.15,2013-07-10 11:40:00,
2013-07-10 07:43:00,70.7,68.6,29.86,SSE,161,7.0,12.0,93,0.00,,,0.00,Wunderground v.1.15,2013-07-10 11:43:00,
2013-07-10 07:44:00,70.7,68.6,29.86,SSE,157,7.0,12.0,93,0.00,,,0.00,Wunderground v.1.15,2013-07-10 11:44:00,
2013-07-10 07:45:00,70.7,68.6,29.86,SE,136,7.0,12.0,93,0.00,,,0.00,Wunderground v.1.15,2013-07-10 11:45:00,
2013-07-10 07:46:00,70.7,68.6,29.86,SSE,167,6.0,12.0,93,0.00,,,0.00,Wunderground v.1.15,2013-07-10 11:46:00,
2013-07-10 07:49:00,70.8,68.7,29.86,SSE,164,6.0,12.0,93,0.00,,,0.00,Wunderground v.1.15,2013-07-10 11:49:00,
2013-07-10 07:50:00,70.8,68.7,29.85,SE,144,6.0,12.0,93,0.00,,,0.00,Wunderground v.1.15,2013-07-10 11:50:00,
2013-07-10 07:52:00,70.8,68.7,29.86,SSW,192,6.0,12.0,93,0.00,,,0.00,Wunderground v.1.15,2013-07-10 11:52:00,
2013-07-10 07:53:00,70.8,68.7,29.86,South,180,6.0,12.0,93,0.00,,,0.00,Wunderground v.1.15,2013-07-10 11:53:00,
2013-07-10 07:55:00,70.9,68.8,29.86,SSE,148,6.0,12.0,93,0.00,,,0.00,Wunderground v.1.15,2013-07-10 11:55:00,
2013-07-10 07:58:00,71.0,68.9,29.86,SSE,148,6.0,12.0,93,0.00,,,0.00,Wunderground v.1.15,2013-07-10 11:58:00,
2013-07-10 07:59:00,71.0,68.9,29.86,SSE,148,5.0,12.0,93,0.00,,,0.00,Wunderground v.1.15,2013-07-10 11:59:00,
2013-07-10 08:02:00,71.1,69.0,29.86,SSE,148,3.0,12.0,93,0.00,,,0.00,Wunderground v.1.15,2013-07-10 12:02:00,
2013-07-10 08:04:00,71.2,68.8,29.86,SSE,157,3.0,12.0,92,0.00,,,0.00,Wunderground v.1.15,2013-07-10 12:04:00,
2013-07-10 08:06:00,71.2,68.8,29.86,SSE,155,3.0,12.0,92,0.00,,,0.00,Wunderground v.1.15,2013-07-10 12:06:00,
2013-07-10 08:09:00,71.2,68.8,29.86,SSE,155,2.0,12.0,92,0.00,,,0.00,Wunderground v.1.15,2013-07-10 12:09:00,
2013-07-10 08:10:00,71.3,68.9,29.86,SSE,155,2.0,12.0,92,0.00,,,0.00,Wunderground v.1.15,2013-07-10 12:10:00,
2013-07-10 08:13:00,71.4,69.0,29.86,SSE,159,3.0,12.0,92,0.00,,,0.00,Wunderground v.1.15,2013-07-10 12:13:00,
2013-07-10 08:15:00,71.4,69.0,29.86,SSE,150,3.0,12.0,92,0.00,,,0.00,Wunderground v.1.15,2013-07-10 12:15:00,
2013-07-10 08:16:00,71.4,69.0,29.86,SSE,161,3.0,12.0,92,0.00,,,0.00,Wunderground v.1.15,2013-07-10 12:16:00,
2013-07-10 08:19:00,71.5,69.1,29.86,SSE,161,4.0,12.0,92,0.00,,,0.00,Wunderground v.1.15,2013-07-10 12:19:00,
2013-07-10 08:20:00,71.5,69.1,29.86,SSE,160,5.0,12.0,92,0.00,,,0.00,Wunderground v.1.15,2013-07-10 12:20:00,
2013-07-10 08:21:00,71.5,69.1,29.86,SSE,161,5.0,12.0,92,0.00,,,0.00,Wunderground v.1.15,2013-07-10 12:21:00,
2013-07-10 08:22:00,71.5,69.1,29.86,SSE,159,5.0,12.0,92,0.00,,,0.00,Wunderground v.1.15,2013-07-10 12:22:00,
2013-07-10 08:25:00,71.6,69.2,29.86,South,169,5.0,12.0,92,0.00,,,0.00,Wunderground v.1.15,2013-07-10 12:25:00,
2013-07-10 08:26:00,71.6,69.2,29.86,SSE,168,4.0,12.0,92,0.00,,,0.00,Wunderground v.1.15,2013-07-10 12:26:00,
2013-07-10 08:30:00,71.7,69.3,29.86,SSE,168,3.0,3.0,92,0.00,,,0.00,Wunderground v.1.15,2013-07-10 12:30:00,
2013-07-10 08:31:00,71.7,69.3,29.86,SSE,168,3.0,12.0,92,0.00,,,0.00,Wunderground v.1.15,2013-07-10 12:31:00,
2013-07-10 08:32:00,71.8,69.3,29.86,SSE,168,3.0,12.0,92,0.00,,,0.00,Wunderground v.1.15,2013-07-10 12:32:00,
2013-07-10 08:34:00,71.8,69.3,29.86,SSE,163,3.0,12.0,92,0.00,,,0.00,Wunderground v.1.15,2013-07-10 12:34:00,
2013-07-10 08:37:00,71.9,69.4,29.86,SSE,163,3.0,12.0,92,0.00,,,0.00,Wunderground v.1.15,2013-07-10 12:37:00,
2013-07-10 08:38:00,71.9,69.4,29.86,SSE,163,3.0,12.0,92,0.00,,,0.00,Wunderground v.1.15,2013-07-10 12:38:00,
2013-07-10 08:41:00,72.0,69.5,29.85,SSE,163,4.0,12.0,92,0.00,,,0.00,Wunderground v.1.15,2013-07-10 12:41:00,
2013-07-10 08:42:00,72.1,69.6,29.85,SSE,164,4.0,12.0,92,0.00,,,0.00,Wunderground v.1.15,2013-07-10 12:42:00,
2013-07-10 08:44:00,72.1,69.6,29.85,SSE,164,4.0,12.0,92,0.00,,,0.00,Wunderground v.1.15,2013-07-10 12:44:00,
2013-07-10 08:46:00,72.2,69.7,29.85,SSE,164,4.0,12.0,92,0.00,,,0.00,Wunderground v.1.15,2013-07-10 12:46:00,
2013-07-10 08:47:00,72.2,69.7,29.85,SSE,164,3.0,12.0,92,0.00,,,0.00,Wunderground v.1.15,2013-07-10 12:47:00,
2013-07-10 08:48:00,72.2,69.7,29.85,SSW,198,3.0,12.0,92,0.00,,,0.00,Wunderground v.1.15,2013-07-10 12:48:00,
2013-07-10 08:50:00,72.3,69.8,29.85,SSE,158,4.0,12.0,92,0.00,,,0.00,Wunderground v.1.15,2013-07-10 12:50:00,
2013-07-10 08:53:00,72.3,69.8,29.85,SSE,158,4.0,12.0,92,0.00,,,0.00,Wunderground v.1.15,2013-07-10 12:53:00,
2013-07-10 08:54:00,72.3,69.5,29.85,SSE,158,4.0,12.0,91,0.00,,,0.00,Wunderground v.1.15,2013-07-10 12:54:00,
2013-07-10 08:57:00,72.5,69.7,29.85,SSE,158,4.0,12.0,91,0.00,,,0.00,Wunderground v.1.15,2013-07-10 12:57:00,
2013-07-10 08:59:00,72.5,69.7,29.85,SSE,159,4.0,12.0,91,0.00,,,0.00,Wunderground v.1.15,2013-07-10 12:59:00,
2013-07-10 09:03:00,72.5,69.7,29.85,South,172,4.0,8.0,91,0.00,,,0.00,Wunderground v.1.15,2013-07-10 13:03:00,
2013-07-10 09:06:00,72.6,69.8,29.85,SSE,164,5.0,8.0,91,0.00,,,0.00,Wunderground v.1.15,2013-07-10 13:06:00,
2013-07-10 09:07:00,72.6,69.8,29.85,South,169,5.0,8.0,91,0.00,,,0.00,Wunderground v.1.15,2013-07-10 13:07:00,
2013-07-10 09:08:00,72.6,69.8,29.85,South,170,5.0,8.0,91,0.00,,,0.00,Wunderground v.1.15,2013-07-10 13:08:00,
2013-07-10 09:09:00,72.7,69.9,29.85,South,169,5.0,8.0,91,0.00,,,0.00,Wunderground v.1.15,2013-07-10 13:09:00,
2013-07-10 09:12:00,72.8,70.0,29.85,South,176,6.0,8.0,91,0.00,,,0.00,Wunderground v.1.15,2013-07-10 13:12:00,
2013-07-10 09:14:00,72.9,70.1,29.85,SSE,165,6.0,8.0,91,0.00,,,0.00,Wunderground v.1.15,2013-07-10 13:14:00,
2013-07-10 09:15:00,73.0,70.2,29.85,SSE,165,6.0,8.0,91,0.00,,,0.00,Wunderground v.1.15,2013-07-10 13:15:00,
2013-07-10 09:16:00,73.0,70.2,29.85,SSE,155,6.0,8.0,91,0.00,,,0.00,Wunderground v.1.15,2013-07-10 13:16:00,
2013-07-10 09:18:00,73.1,70.0,29.84,SE,140,6.0,9.0,90,0.00,,,0.00,Wunderground v.1.15,2013-07-10 13:18:00,
2013-07-10 09:21:00,73.3,70.2,29.84,SSE,155,5.0,8.0,90,0.00,,,0.00,Wunderground v.1.15,2013-07-10 13:21:00,
2013-07-10 09:22:00,73.4,70.3,29.84,South,186,5.0,8.0,90,0.00,,,0.00,Wunderground v.1.15,2013-07-10 13:22:00,
2013-07-10 09:25:00,73.6,70.5,29.84,SE,138,5.0,8.0,90,0.00,,,0.00,Wunderground v.1.15,2013-07-10 13:25:00,
2013-07-10 09:27:00,73.8,70.7,29.84,South,173,6.0,8.0,90,0.00,,,0.00,Wunderground v.1.15,2013-07-10 13:27:00,
2013-07-10 09:28:00,73.8,70.7,29.84,SSE,161,6.0,8.0,90,0.00,,,0.00,Wunderground v.1.15,2013-07-10 13:28:00,
2013-07-10 09:29:00,73.9,70.8,29.84,SSE,168,6.0,8.0,90,0.00,,,0.00,Wunderground v.1.15,2013-07-10 13:29:00,
2013-07-10 09:31:00,74.1,71.0,29.84,South,188,6.0,8.0,90,0.00,,,0.00,Wunderground v.1.15,2013-07-10 13:31:00,
2013-07-10 09:34:00,74.2,70.7,29.84,South,178,6.0,8.0,89,0.00,,,0.00,Wunderground v.1.15,2013-07-10 13:34:00,
2013-07-10 09:36:00,74.3,70.8,29.84,SSW,212,5.0,8.0,89,0.00,,,0.00,Wunderground v.1.15,2013-07-10 13:36:00,
2013-07-10 09:38:00,74.3,70.8,29.84,South,178,5.0,8.0,89,0.00,,,0.00,Wunderground v.1.15,2013-07-10 13:38:00,
2013-07-10 09:41:00,74.2,70.7,29.84,SSE,163,6.0,8.0,89,0.00,,,0.00,Wunderground v.1.15,2013-07-10 13:41:00,
2013-07-10 09:42:00,74.3,70.8,29.84,SSE,154,5.0,8.0,89,0.00,,,0.00,Wunderground v.1.15,2013-07-10 13:42:00,
2013-07-10 09:46:00,74.4,70.9,29.84,SSE,159,7.0,8.0,89,0.00,,,0.00,Wunderground v.1.15,2013-07-10 13:46:00,
2013-07-10 09:47:00,74.4,70.9,29.84,SSE,167,7.0,8.0,89,0.00,,,0.00,Wunderground v.1.15,2013-07-10 13:47:00,
2013-07-10 09:48:00,74.4,70.9,29.84,SSE,161,7.0,11.0,89,0.00,,,0.00,Wunderground v.1.15,2013-07-10 13:48:00,
2013-07-10 09:52:00,74.4,70.9,29.84,South,190,7.0,8.0,89,0.00,,,0.00,Wunderground v.1.15,2013-07-10 13:52:00,
2013-07-10 09:53:00,74.4,70.9,29.84,South,188,7.0,8.0,89,0.00,,,0.00,Wunderground v.1.15,2013-07-10 13:53:00,
2013-07-10 09:54:00,74.5,71.0,29.84,South,188,7.0,8.0,89,0.00,,,0.00,Wunderground v.1.15,2013-07-10 13:54:00,
2013-07-10 09:55:00,74.6,71.1,29.84,South,174,7.0,8.0,89,0.00,,,0.00,Wunderground v.1.15,2013-07-10 13:55:00,
2013-07-10 10:00:00,74.8,71.3,29.83,South,172,6.0,11.0,89,0.00,,,0.00,Wunderground v.1.15,2013-07-10 14:00:00,
2013-07-10 10:02:00,74.9,71.4,29.83,South,191,6.0,11.0,89,0.00,,,0.00,Wunderground v.1.15,2013-07-10 14:02:00,
2013-07-10 10:03:00,74.9,71.4,29.83,SSE,160,6.0,11.0,89,0.00,,,0.00,Wunderground v.1.15,2013-07-10 14:03:00,
2013-07-10 10:04:00,75.0,71.2,29.83,South,186,6.0,11.0,88,0.00,,,0.00,Wunderground v.1.15,2013-07-10 14:04:00,
2013-07-10 10:08:00,75.1,71.3,29.83,South,186,7.0,11.0,88,0.00,,,0.00,Wunderground v.1.15,2013-07-10 14:08:00,
2013-07-10 10:09:00,75.2,71.4,29.83,South,186,7.0,11.0,88,0.00,,,0.00,Wunderground v.1.15,2013-07-10 14:09:00,
2013-07-10 10:12:00,75.6,71.8,29.83,South,171,6.0,11.0,88,0.00,,,0.00,Wunderground v.1.15,2013-07-10 14:12:00,
2013-07-10 10:13:00,75.6,71.5,29.83,South,171,6.0,11.0,87,0.00,,,0.00,Wunderground v.1.15,2013-07-10 14:13:00,
2013-07-10 10:16:00,75.7,71.6,29.83,South,175,6.0,11.0,87,0.00,,,0.00,Wunderground v.1.15,2013-07-10 14:16:00,
2013-07-10 10:17:00,75.7,71.6,29.83,SSE,150,6.0,11.0,87,0.00,,,0.00,Wunderground v.1.15,2013-07-10 14:17:00,
2013-07-10 10:18:00,75.6,71.5,29.83,SSE,160,7.0,11.0,87,0.00,,,0.00,Wunderground v.1.15,2013-07-10 14:18:00,
2013-07-10 10:19:00,75.6,71.5,29.83,SSE,159,7.0,11.0,87,0.00,,,0.00,Wunderground v.1.15,2013-07-10 14:19:00,
2013-07-10 10:23:00,75.6,71.5,29.83,SSW,198,7.0,11.0,87,0.00,,,0.00,Wunderground v.1.15,2013-07-10 14:23:00,
2013-07-10 10:24:00,75.6,71.5,29.83,SSW,198,7.0,11.0,87,0.00,,,0.00,Wunderground v.1.15,2013-07-10 14:24:00,
2013-07-10 10:25:00,75.6,71.8,29.83,South,187,6.0,11.0,88,0.00,,,0.00,Wunderground v.1.15,2013-07-10 14:25:00,
2013-07-10 10:27:00,75.7,71.6,29.83,SSE,165,5.0,11.0,87,0.00,,,0.00,Wunderground v.1.15,2013-07-10 14:27:00,
2013-07-10 10:28:00,75.7,71.6,29.83,SSE,163,5.0,11.0,87,0.00,,,0.00,Wunderground v.1.15,2013-07-10 14:28:00,
2013-07-10 10:29:00,75.8,71.7,29.83,SSE,163,4.0,11.0,87,0.00,,,0.00,Wunderground v.1.15,2013-07-10 14:29:00,
2013-07-10 10:30:00,75.7,71.6,29.83,SSE,157,4.0,11.0,87,0.00,,,0.00,Wunderground v.1.15,2013-07-10 14:30:00,
2013-07-10 10:33:00,75.6,71.5,29.83,SSE,153,4.0,11.0,87,0.00,,,0.00,Wunderground v.1.15,2013-07-10 14:33:00,
2013-07-10 10:36:00,75.6,71.5,29.83,SSE,164,5.0,11.0,87,0.00,,,0.00,Wunderground v.1.15,2013-07-10 14:36:00,
2013-07-10 10:38:00,75.6,71.8,29.83,SSE,164,5.0,11.0,88,0.00,,,0.00,Wunderground v.1.15,2013-07-10 14:38:00,
2013-07-10 10:39:00,75.7,71.9,29.83,SSE,164,5.0,11.0,88,0.00,,,0.00,Wunderground v.1.15,2013-07-10 14:39:00,
2013-07-10 10:40:00,75.7,71.9,29.83,SSE,163,5.0,5.0,88,0.00,,,0.00,Wunderground v.1.15,2013-07-10 14:40:00,
2013-07-10 10:44:00,75.8,72.0,29.83,SSE,164,5.0,11.0,88,0.00,,,0.00,Wunderground v.1.15,2013-07-10 14:44:00,
2013-07-10 10:45:00,75.8,71.7,29.83,SSE,159,5.0,11.0,87,0.00,,,0.00,Wunderground v.1.15,2013-07-10 14:45:00,
2013-07-10 10:46:00,75.8,71.7,29.83,SSE,160,5.0,11.0,87,0.00,,,0.00,Wunderground v.1.15,2013-07-10 14:46:00,
2013-07-10 10:48:00,75.9,71.8,29.83,South,173,5.0,11.0,87,0.00,,,0.00,Wunderground v.1.15,2013-07-10 14:48:00,
2013-07-10 10:50:00,76.0,71.8,29.83,SSE,168,5.0,11.0,87,0.00,,,0.00,Wunderground v.1.15,2013-07-10 14:50:00,
2013-07-10 10:51:00,76.1,71.9,29.83,SSE,167,5.0,11.0,87,0.00,,,0.00,Wunderground v.1.15,2013-07-10 14:51:00,
2013-07-10 10:52:00,76.1,71.9,29.83,South,175,6.0,11.0,87,0.00,,,0.00,Wunderground v.1.15,2013-07-10 14:52:00,
2013-07-10 10:54:00,76.1,71.6,29.83,South,180,6.0,11.0,86,0.00,,,0.00,Wunderground v.1.15,2013-07-10 14:54:00,
2013-07-10 10:57:00,76.2,71.7,29.82,SSE,154,6.0,11.0,86,0.00,,,0.00,Wunderground v.1.15,2013-07-10 14:57:00,
2013-07-10 10:58:00,76.2,71.7,29.82,South,173,6.0,11.0,86,0.00,,,0.00,Wunderground v.1.15,2013-07-10 14:58:00,
2013-07-10 11:00:00,76.2,71.7,29.82,SSE,153,7.0,7.0,86,0.00,,,0.00,Wunderground v.1.15,2013-07-10 15:00:00,
2013-07-10 11:01:00,76.2,71.7,29.83,SSE,165,7.0,8.0,86,0.00,,,0.00,Wunderground v.1.15,2013-07-10 15:01:00,
2013-07-10 11:04:00,76.3,72.1,29.83,South,174,6.0,8.0,87,0.00,,,0.00,Wunderground v.1.15,2013-07-10 15:04:00,
2013-07-10 11:06:00,76.3,71.8,29.82,South,170,6.0,11.0,86,0.00,,,0.00,Wunderground v.1.15,2013-07-10 15:06:00,
2013-07-10 11:08:00,76.3,72.1,29.82,SSW,193,7.0,11.0,87,0.00,,,0.00,Wunderground v.1.15,2013-07-10 15:08:00,
2013-07-10 11:11:00,76.6,72.4,29.82,South,173,6.0,8.0,87,0.00,,,0.00,Wunderground v.1.15,2013-07-10 15:11:00,
2013-07-10 11:12:00,76.8,72.6,29.82,SSW,196,6.0,8.0,87,0.00,,,0.00,Wunderground v.1.15,2013-07-10 15:12:00,
2013-07-10 11:14:00,76.9,72.4,29.82,SSE,168,6.0,8.0,86,0.00,,,0.00,Wunderground v.1.15,2013-07-10 15:14:00,
2013-07-10 11:15:00,76.9,72.0,29.82,SSW,211,6.0,8.0,85,0.00,,,0.00,Wunderground v.1.15,2013-07-10 15:15:00,
2013-07-10 11:18:00,77.0,72.1,29.82,SSE,159,6.0,9.0,85,0.00,,,0.00,Wunderground v.1.15,2013-07-10 15:18:00,
2013-07-10 11:19:00,77.1,72.2,29.82,SSE,163,6.0,12.0,85,0.00,,,0.00,Wunderground v.1.15,2013-07-10 15:19:00,
2013-07-10 11:20:00,77.1,72.2,29.82,SSE,168,6.0,8.0,85,0.00,,,0.00,Wunderground v.1.15,2013-07-10 15:20:00,
2013-07-10 11:21:00,77.1,72.2,29.82,SSE,163,6.0,8.0,85,0.00,,,0.00,Wunderground v.1.15,2013-07-10 15:21:00,
2013-07-10 11:22:00,77.1,72.2,29.82,SSE,163,6.0,8.0,85,0.00,,,0.00,Wunderground v.1.15,2013-07-10 15:22:00,
2013-07-10 11:25:00,77.3,72.4,29.82,South,169,7.0,11.0,85,0.00,,,0.00,Wunderground v.1.15,2013-07-10 15:25:00,
2013-07-10 11:26:00,77.3,72.4,29.81,SSE,161,7.0,11.0,85,0.00,,,0.00,Wunderground v.1.15,2013-07-10 15:26:00,
2013-07-10 11:27:00,77.2,72.3,29.81,South,186,7.0,11.0,85,0.00,,,0.00,Wunderground v.1.15,2013-07-10 15:27:00,
2013-07-10 11:29:00,77.3,72.4,29.81,SSE,163,7.0,11.0,85,0.00,,,0.00,Wunderground v.1.15,2013-07-10 15:29:00,
2013-07-10 11:30:00,77.4,72.5,29.81,SSE,164,7.0,8.0,85,0.00,,,0.00,Wunderground v.1.15,2013-07-10 15:30:00,
2013-07-10 11:34:00,77.6,72.7,29.81,SSE,159,7.0,9.0,85,0.00,,,0.00,Wunderground v.1.15,2013-07-10 15:34:00,
2013-07-10 11:35:00,77.7,72.8,29.81,SSW,197,7.0,9.0,85,0.00,,,0.00,Wunderground v.1.15,2013-07-10 15:35:00,
2013-07-10 11:36:00,77.8,72.6,29.81,South,180,7.0,9.0,84,0.00,,,0.00,Wunderground v.1.15,2013-07-10 15:36:00,
2013-07-10 11:39:00,78.0,72.8,29.81,SSE,157,6.0,9.0,84,0.00,,,0.00,Wunderground v.1.15,2013-07-10 15:39:00,
2013-07-10 11:41:00,78.1,72.5,29.80,SSE,165,6.0,8.0,83,0.00,,,0.00,Wunderground v.1.15,2013-07-10 15:41:00,
2013-07-10 11:45:00,78.2,72.6,29.80,SSE,155,5.0,8.0,83,0.00,,,0.00,Wunderground v.1.15,2013-07-10 15:45:00,
2013-07-10 11:46:00,78.2,73.0,29.80,SSE,155,5.0,8.0,84,0.00,,,0.00,Wunderground v.1.15,2013-07-10 15:46:00,
2013-07-10 11:47:00,78.3,73.1,29.80,SSE,155,5.0,8.0,84,0.00,,,0.00,Wunderground v.1.15,2013-07-10 15:47:00,
2013-07-10 11:49:00,78.5,73.3,29.80,SSE,148,5.0,8.0,84,0.00,,,0.00,Wunderground v.1.15,2013-07-10 15:49:00,
2013-07-10 11:53:00,78.8,72.8,29.80,South,187,6.0,10.0,82,0.00,,,0.00,Wunderground v.1.15,2013-07-10 15:53:00,
2013-07-10 11:55:00,78.9,72.9,29.80,South,180,6.0,10.0,82,0.00,,,0.00,Wunderground v.1.15,2013-07-10 15:55:00,
2013-07-10 11:56:00,78.9,72.9,29.80,South,190,7.0,10.0,82,0.00,,,0.00,Wunderground v.1.15,2013-07-10 15:56:00,
2013-07-10 11:58:00,78.8,72.8,29.80,SSE,165,6.0,10.0,82,0.00,,,0.00,Wunderground v.1.15,2013-07-10 15:58:00,
2013-07-10 11:59:00,78.8,72.8,29.80,South,177,7.0,10.0,82,0.00,,,0.00,Wunderground v.1.15,2013-07-10 15:59:00,
2013-07-10 12:00:00,78.7,72.7,29.80,SSE,167,7.0,11.0,82,0.00,,,0.00,Wunderground v.1.15,2013-07-10 16:00:00,
2013-07-10 12:05:00,78.5,72.5,29.80,South,186,7.0,11.0,82,0.00,,,0.00,Wunderground v.1.15,2013-07-10 16:05:00,
2013-07-10 12:06:00,78.5,72.9,29.79,South,187,6.0,11.0,83,0.00,,,0.00,Wunderground v.1.15,2013-07-10 16:06:00,
2013-07-10 12:07:00,78.5,72.9,29.79,SSE,166,7.0,11.0,83,0.00,,,0.00,Wunderground v.1.15,2013-07-10 16:07:00,
2013-07-10 12:09:00,78.9,72.9,29.79,SSE,161,7.0,11.0,82,0.00,,,0.00,Wunderground v.1.15,2013-07-10 16:09:00,
2013-07-10 12:11:00,79.2,73.2,29.79,SSE,155,7.0,11.0,82,0.00,,,0.00,Wunderground v.1.15,2013-07-10 16:11:00,
2013-07-10 12:15:00,79.7,73.7,29.79,SSE,161,8.0,12.0,82,0.00,,,0.00,Wunderground v.1.15,2013-07-10 16:15:00,
2013-07-10 12:16:00,79.8,73.8,29.79,South,177,8.0,12.0,82,0.00,,,0.00,Wunderground v.1.15,2013-07-10 16:16:00,
2013-07-10 12:17:00,80.0,73.6,29.79,South,173,8.0,12.0,81,0.00,,,0.00,Wunderground v.1.15,2013-07-10 16:17:00,
2013-07-10 12:21:00,80.6,73.9,29.79,SSE,154,8.0,11.0,80,0.00,,,0.00,Wunderground v.1.15,2013-07-10 16:21:00,
2013-07-10 12:22:00,80.8,74.4,29.78,SSE,156,8.0,11.0,81,0.00,,,0.00,Wunderground v.1.15,2013-07-10 16:22:00,
2013-07-10 12:25:00,81.0,73.9,29.79,South,178,7.0,11.0,79,0.00,,,0.00,Wunderground v.1.15,2013-07-10 16:25:00,
2013-07-10 12:26:00,81.0,73.5,29.79,SSW,211,7.0,11.0,78,0.00,,,0.00,Wunderground v.1.15,2013-07-10 16:26:00,
2013-07-10 12:28:00,80.8,73.3,29.78,South,169,7.0,11.0,78,0.00,,,0.00,Wunderground v.1.15,2013-07-10 16:28:00,
2013-07-10 12:31:00,80.7,73.2,29.78,SSE,163,7.0,11.0,78,0.00,,,0.00,Wunderground v.1.15,2013-07-10 16:31:00,
2013-07-10 12:32:00,80.7,73.6,29.78,South,177,8.0,11.0,79,0.00,,,0.00,Wunderground v.1.15,2013-07-10 16:32:00,
2013-07-10 12:33:00,80.8,73.7,29.78,South,170,8.0,11.0,79,0.00,,,0.00,Wunderground v.1.15,2013-07-10 16:33:00,
2013-07-10 12:35:00,80.9,73.8,29.78,SE,133,7.0,11.0,79,0.00,,,0.00,Wunderground v.1.15,2013-07-10 16:35:00,
2013-07-10 12:36:00,81.0,73.9,29.78,SSE,161,7.0,11.0,79,0.00,,,0.00,Wunderground v.1.15,2013-07-10 16:36:00,
2013-07-10 12:39:00,81.0,73.5,29.78,SSE,156,7.0,11.0,78,0.00,,,0.00,Wunderground v.1.15,2013-07-10 16:39:00,
2013-07-10 12:40:00,80.9,73.4,29.78,SSE,163,7.0,11.0,78,0.00,,,0.00,Wunderground v.1.15,2013-07-10 16:40:00,
2013-07-10 12:42:00,80.7,73.2,29.78,South,182,7.0,11.0,78,0.00,,,0.00,Wunderground v.1.15,2013-07-10 16:42:00,
2013-07-10 12:45:00,80.7,73.6,29.78,SSE,159,7.0,11.0,79,0.00,,,0.00,Wunderground v.1.15,2013-07-10 16:45:00,
2013-07-10 12:46:00,80.7,73.6,29.77,SSE,161,7.0,11.0,79,0.00,,,0.00,Wunderground v.1.15,2013-07-10 16:46:00,
2013-07-10 12:48:00,80.6,73.5,29.77,SSE,161,7.0,11.0,79,0.00,,,0.00,Wunderground v.1.15,2013-07-10 16:48:00,
2013-07-10 12:49:00,80.6,73.5,29.77,South,179,7.0,11.0,79,0.00,,,0.00,Wunderground v.1.15,2013-07-10 16:49:00,
2013-07-10 12:54:00,80.8,73.7,29.77,SSE,163,8.0,11.0,79,0.00,,,0.00,Wunderground v.1.15,2013-07-10 16:54:00,
2013-07-10 12:55:00,80.9,73.8,29.77,South,181,8.0,11.0,79,0.00,,,0.00,Wunderground v.1.15,2013-07-10 16:55:00,
2013-07-10 12:56:00,80.9,73.8,29.77,SW,221,9.0,11.0,79,0.00,,,0.00,Wunderground v.1.15,2013-07-10 16:56:00,
2013-07-10 12:58:00,81.1,74.0,29.77,South,173,9.0,11.0,79,0.00,,,0.00,Wunderground v.1.15,2013-07-10 16:58:00,
2013-07-10 12:59:00,81.2,74.1,29.76,South,173,9.0,11.0,79,0.00,,,0.00,Wunderground v.1.15,2013-07-10 16:59:00,
2013-07-10 13:00:00,81.2,74.1,29.76,South,176,9.0,13.0,79,0.00,,,0.00,Wunderground v.1.15,2013-07-10 17:00:00,
2013-07-10 13:01:00,81.3,74.2,29.76,SSE,167,9.0,13.0,79,0.00,,,0.00,Wunderground v.1.15,2013-07-10 17:01:00,
2013-07-10 13:04:00,81.5,74.0,29.76,SSE,161,8.0,13.0,78,0.00,,,0.00,Wunderground v.1.15,2013-07-10 17:04:00,
2013-07-10 13:06:00,81.7,74.5,29.76,SSW,203,8.0,13.0,79,0.00,,,0.00,Wunderground v.1.15,2013-07-10 17:06:00,
2013-07-10 13:07:00,81.8,74.3,29.76,South,180,8.0,13.0,78,0.00,,,0.00,Wunderground v.1.15,2013-07-10 17:07:00,
2013-07-10 13:10:00,82.1,74.6,29.76,SSE,163,8.0,12.0,78,0.00,,,0.00,Wunderground v.1.15,2013-07-10 17:10:00,
2013-07-10 13:11:00,82.3,74.7,29.76,South,187,8.0,12.0,78,0.00,,,0.00,Wunderground v.1.15,2013-07-10 17:11:00,
2013-07-10 13:12:00,82.5,74.9,29.76,SSW,197,7.0,12.0,78,0.00,,,0.00,Wunderground v.1.15,2013-07-10 17:12:00,
2013-07-10 13:13:00,82.5,74.9,29.76,SW,234,7.0,12.0,78,0.00,,,0.00,Wunderground v.1.15,2013-07-10 17:13:00,
2013-07-10 13:15:00,82.7,74.8,29.75,SSE,161,7.0,12.0,77,0.00,,,0.00,Wunderground v.1.15,2013-07-10 17:15:00,
2013-07-10 13:16:00,82.8,74.5,29.75,South,183,7.0,12.0,76,0.00,,,0.00,Wunderground v.1.15,2013-07-10 17:16:00,
2013-07-10 13:17:00,82.9,74.6,29.75,South,172,7.0,12.0,76,0.00,,,0.00,Wunderground v.1.15,2013-07-10 17:17:00,
2013-07-10 13:18:00,82.9,74.6,29.75,SSE,156,7.0,12.0,76,0.00,,,0.00,Wunderground v.1.15,2013-07-10 17:18:00,
2013-07-10 13:21:00,82.9,74.6,29.75,South,171,7.0,12.0,76,0.00,,,0.00,Wunderground v.1.15,2013-07-10 17:21:00,
2013-07-10 13:24:00,83.3,74.5,29.75,SW,234,8.0,15.0,75,0.00,,,0.00,Wunderground v.1.15,2013-07-10 17:24:00,
2013-07-10 13:26:00,83.4,74.6,29.75,SSE,160,8.0,15.0,75,0.00,,,0.00,Wunderground v.1.15,2013-07-10 17:26:00,
2013-07-10 13:29:00,83.5,74.3,29.75,SW,220,9.0,15.0,74,0.00,,,0.00,Wunderground v.1.15,2013-07-10 17:29:00,
2013-07-10 13:31:00,83.6,74.4,29.75,South,170,8.0,12.0,74,0.00,,,0.00,Wunderground v.1.15,2013-07-10 17:31:00,
2013-07-10 13:32:00,83.5,74.3,29.74,SSE,162,9.0,12.0,74,0.00,,,0.00,Wunderground v.1.15,2013-07-10 17:32:00,
2013-07-10 13:35:00,83.5,74.7,29.74,South,180,9.0,12.0,75,0.00,,,0.00,Wunderground v.1.15,2013-07-10 17:35:00,
2013-07-10 13:37:00,83.6,74.8,29.74,South,177,9.0,12.0,75,0.00,,,0.00,Wunderground v.1.15,2013-07-10 17:37:00,
2013-07-10 13:39:00,83.6,74.8,29.74,SSE,164,9.0,14.0,75,0.00,,,0.00,Wunderground v.1.15,2013-07-10 17:39:00,
2013-07-10 13:40:00,83.6,74.8,29.74,SSW,202,10.0,16.0,75,0.00,,,0.00,Wunderground v.1.15,2013-07-10 17:40:00,
2013-07-10 13:41:00,83.6,74.8,29.74,South,171,10.0,16.0,75,0.00,,,0.00,Wunderground v.1.15,2013-07-10 17:41:00,
2013-07-10 13:46:00,83.1,74.4,29.73,South,184,9.0,16.0,75,0.00,,,0.00,Wunderground v.1.15,2013-07-10 17:46:00,
2013-07-10 13:47:00,83.0,74.3,29.73,SSE,156,9.0,16.0,75,0.00,,,0.00,Wunderground v.1.15,2013-07-10 17:47:00,
2013-07-10 13:48:00,83.0,74.3,29.73,South,177,9.0,16.0,75,0.00,,,0.00,Wunderground v.1.15,2013-07-10 17:48:00,
2013-07-10 13:49:00,82.9,74.2,29.73,South,170,9.0,16.0,75,0.00,,,0.00,Wunderground v.1.15,2013-07-10 17:49:00,
2013-07-10 13:50:00,83.0,74.6,29.73,SSE,163,8.0,8.0,76,0.00,,,0.00,Wunderground v.1.15,2013-07-10 17:50:00,
2013-07-10 13:52:00,83.3,75.3,29.73,South,173,7.0,12.0,77,0.00,,,0.00,Wunderground v.1.15,2013-07-10 17:52:00,
2013-07-10 13:53:00,83.5,75.5,29.73,South,180,7.0,12.0,77,0.00,,,0.00,Wunderground v.1.15,2013-07-10 17:53:00,
2013-07-10 13:57:00,84.1,75.3,29.73,SSE,164,7.0,12.0,75,0.00,,,0.00,Wunderground v.1.15,2013-07-10 17:57:00,
2013-07-10 13:58:00,84.2,75.0,29.72,South,169,7.0,12.0,74,0.00,,,0.00,Wunderground v.1.15,2013-07-10 17:58:00,
2013-07-10 13:59:00,84.3,75.5,29.73,South,190,7.0,12.0,75,0.00,,,0.00,Wunderground v.1.15,2013-07-10 17:59:00,
2013-07-10 14:02:00,84.3,74.7,29.72,SSE,161,7.0,19.0,73,0.00,,,0.00,Wunderground v.1.15,2013-07-10 18:02:00,
2013-07-10 14:03:00,84.1,74.5,29.72,SSW,200,7.0,19.0,73,0.00,,,0.00,Wunderground v.1.15,2013-07-10 18:03:00,
2013-07-10 14:06:00,83.5,74.3,29.72,South,184,8.0,19.0,74,0.00,,,0.00,Wunderground v.1.15,2013-07-10 18:06:00,
2013-07-10 14:08:00,82.9,74.6,29.73,West,259,8.0,19.0,76,0.00,,,0.00,Wunderground v.1.15,2013-07-10 18:08:00,
2013-07-10 14:10:00,82.0,74.5,29.73,South,186,10.0,19.0,78,0.00,,,0.01,Wunderground v.1.15,2013-07-10 18:10:00,
2013-07-10 14:11:00,81.2,74.1,29.73,South,188,11.0,19.0,79,0.32,,,0.02,Wunderground v.1.15,2013-07-10 18:11:00,
2013-07-10 14:13:00,80.2,74.6,29.73,South,174,11.0,19.0,83,0.83,,,0.05,Wunderground v.1.15,2013-07-10 18:13:00,
2013-07-10 14:14:00,79.8,74.2,29.73,South,183,11.0,19.0,83,0.56,,,0.05,Wunderground v.1.15,2013-07-10 18:14:00,
2013-07-10 14:16:00,79.3,74.4,29.72,South,175,11.0,19.0,85,0.17,,,0.05,Wunderground v.1.15,2013-07-10 18:16:00,
2013-07-10 14:19:00,79.0,75.1,29.72,South,169,9.0,19.0,88,0.10,,,0.05,Wunderground v.1.15,2013-07-10 18:19:00,
2013-07-10 14:21:00,79.2,75.7,29.72,South,170,8.0,19.0,89,0.07,,,0.05,Wunderground v.1.15,2013-07-10 18:21:00,
2013-07-10 14:22:00,79.2,75.7,29.72,South,184,7.0,19.0,89,0.06,,,0.05,Wunderground v.1.15,2013-07-10 18:22:00,
2013-07-10 14:23:00,79.3,75.4,29.72,South,180,7.0,19.0,88,0.06,,,0.05,Wunderground v.1.15,2013-07-10 18:23:00,
2013-07-10 14:25:00,79.3,75.4,29.72,SSW,205,7.0,19.0,88,0.05,,,0.05,Wunderground v.1.15,2013-07-10 18:25:00,
2013-07-10 14:27:00,79.4,75.5,29.72,South,180,7.0,19.0,88,0.04,,,0.05,Wunderground v.1.15,2013-07-10 18:27:00,
2013-07-10 14:28:00,79.4,75.5,29.72,SSW,196,7.0,19.0,88,0.04,,,0.05,Wunderground v.1.15,2013-07-10 18:28:00,
2013-07-10 14:29:00,79.5,75.6,29.72,SSE,154,7.0,19.0,88,0.04,,,0.05,Wunderground v.1.15,2013-07-10 18:29:00,
2013-07-10 14:32:00,80.2,77.0,29.72,South,187,6.0,19.0,90,0.00,,,0.05,Wunderground v.1.15,2013-07-10 18:32:00,
2013-07-10 14:33:00,80.3,77.1,29.72,SSE,163,6.0,19.0,90,0.00,,,0.05,Wunderground v.1.15,2013-07-10 18:33:00,
2013-07-10 14:34:00,80.4,76.9,29.73,West,260,5.0,19.0,89,0.00,,,0.05,Wunderground v.1.15,2013-07-10 18:34:00,
2013-07-10 14:37:00,80.5,75.9,29.73,South,169,6.0,19.0,86,0.00,,,0.05,Wunderground v.1.15,2013-07-10 18:37:00,
2013-07-10 14:38:00,80.4,75.8,29.73,South,170,6.0,19.0,86,0.00,,,0.05,Wunderground v.1.15,2013-07-10 18:38:00,
2013-07-10 14:42:00,80.3,75.0,29.73,South,170,9.0,19.0,84,0.00,,,0.05,Wunderground v.1.15,2013-07-10 18:42:00,
2013-07-10 14:43:00,80.3,75.4,29.73,SSW,200,9.0,19.0,85,0.00,,,0.05,Wunderground v.1.15,2013-07-10 18:43:00,
2013-07-10 14:44:00,80.2,75.3,29.73,South,184,9.0,19.0,85,0.00,,,0.05,Wunderground v.1.15,2013-07-10 18:44:00,
2013-07-10 14:47:00,79.7,74.8,29.73,ESE,119,10.0,19.0,85,0.00,,,0.05,Wunderground v.1.15,2013-07-10 18:47:00,
2013-07-10 14:48:00,79.5,73.9,29.73,SSW,193,11.0,20.0,83,0.00,,,0.05,Wunderground v.1.15,2013-07-10 18:48:00,
2013-07-10 14:49:00,79.1,73.5,29.73,South,177,12.0,20.0,83,0.00,,,0.05,Wunderground v.1.15,2013-07-10 18:49:00,
2013-07-10 14:50:00,78.9,73.3,29.72,WSW,252,12.0,12.0,83,0.00,,,0.05,Wunderground v.1.15,2013-07-10 18:50:00,
2013-07-10 14:53:00,78.1,72.9,29.72,SSE,162,13.0,19.0,84,0.00,,,0.05,Wunderground v.1.15,2013-07-10 18:53:00,
2013-07-10 14:56:00,77.9,73.4,29.72,SSW,206,12.0,19.0,86,0.00,,,0.05,Wunderground v.1.15,2013-07-10 18:56:00,
2013-07-10 14:58:00,78.0,73.5,29.72,SSE,167,11.0,19.0,86,0.00,,,0.05,Wunderground v.1.15,2013-07-10 18:58:00,
2013-07-10 14:59:00,78.0,73.5,29.71,South,169,10.0,19.0,86,0.00,,,0.05,Wunderground v.1.15,2013-07-10 18:59:00,
2013-07-10 15:00:00,78.1,73.6,29.71,South,190,9.0,23.0,86,0.00,,,0.05,Wunderground v.1.15,2013-07-10 19:00:00,
2013-07-10 15:03:00,78.2,73.3,29.71,South,177,9.0,23.0,85,0.00,,,0.05,Wunderground v.1.15,2013-07-10 19:03:00,
2013-07-10 15:04:00,78.3,73.4,29.71,South,184,8.0,23.0,85,0.00,,,0.05,Wunderground v.1.15,2013-07-10 19:04:00,
2013-07-10 15:06:00,78.4,73.2,29.71,SE,140,8.0,23.0,84,0.00,,,0.05,Wunderground v.1.15,2013-07-10 19:06:00,
2013-07-10 15:09:00,78.3,73.1,29.71,South,183,7.0,23.0,84,0.00,,,0.05,Wunderground v.1.15,2013-07-10 19:09:00,
2013-07-10 15:10:00,78.3,73.1,29.71,SSE,166,6.0,6.0,84,0.00,,,0.05,Wunderground v.1.15,2013-07-10 19:10:00,
2013-07-10 15:11:00,78.3,73.1,29.71,SSW,209,6.0,23.0,84,0.00,,,0.05,Wunderground v.1.15,2013-07-10 19:11:00,
2013-07-10 15:12:00,78.3,73.1,29.71,South,184,5.0,23.0,84,0.00,,,0.05,Wunderground v.1.15,2013-07-10 19:12:00,
2013-07-10 15:15:00,78.2,73.3,29.71,South,175,6.0,23.0,85,0.00,,,0.05,Wunderground v.1.15,2013-07-10 19:15:00,
2013-07-10 15:17:00,78.1,73.2,29.71,SSE,157,6.0,23.0,85,0.00,,,0.05,Wunderground v.1.15,2013-07-10 19:17:00,
2013-07-10 15:21:00,77.8,73.6,29.71,South,191,7.0,23.0,87,0.00,,,0.06,Wunderground v.1.15,2013-07-10 19:21:00,
2013-07-10 15:22:00,77.7,73.5,29.71,SSE,156,7.0,23.0,87,0.00,,,0.06,Wunderground v.1.15,2013-07-10 19:22:00,
2013-07-10 15:26:00,77.4,73.9,29.71,SSE,165,7.0,23.0,89,0.14,,,0.07,Wunderground v.1.15,2013-07-10 19:26:00,
2013-07-10 15:27:00,77.3,73.8,29.71,South,180,8.0,23.0,89,0.14,,,0.07,Wunderground v.1.15,2013-07-10 19:27:00,
2013-07-10 15:28:00,77.3,73.8,29.71,SW,223,7.0,23.0,89,0.12,,,0.07,Wunderground v.1.15,2013-07-10 19:28:00,
2013-07-10 15:29:00,77.2,74.0,29.71,SSE,163,7.0,23.0,90,0.09,,,0.07,Wunderground v.1.15,2013-07-10 19:29:00,
2013-07-10 15:33:00,77.1,73.9,29.71,South,175,6.0,23.0,90,0.06,,,0.07,Wunderground v.1.15,2013-07-10 19:33:00,
2013-07-10 15:34:00,77.1,73.9,29.71,SSE,165,6.0,23.0,90,0.05,,,0.07,Wunderground v.1.15,2013-07-10 19:34:00,
2013-07-10 15:35:00,77.1,74.3,29.71,South,169,6.0,23.0,91,0.05,,,0.07,Wunderground v.1.15,2013-07-10 19:35:00,
2013-07-10 15:38:00,77.0,74.2,29.71,SSE,153,6.0,23.0,91,0.04,,,0.07,Wunderground v.1.15,2013-07-10 19:38:00,
2013-07-10 15:39:00,77.0,74.2,29.71,SSW,205,6.0,23.0,91,0.04,,,0.07,Wunderground v.1.15,2013-07-10 19:39:00,
2013-07-10 15:44:00,77.2,74.4,29.71,SSE,168,6.0,23.0,91,0.00,,,0.07,Wunderground v.1.15,2013-07-10 19:44:00,
2013-07-10 15:45:00,77.2,74.4,29.71,SSE,168,5.0,23.0,91,0.00,,,0.07,Wunderground v.1.15,2013-07-10 19:45:00,
2013-07-10 15:46:00,77.3,74.5,29.71,SSE,168,5.0,23.0,91,0.00,,,0.07,Wunderground v.1.15,2013-07-10 19:46:00,
2013-07-10 15:49:00,77.4,74.6,29.70,South,178,5.0,23.0,91,0.00,,,0.07,Wunderground v.1.15,2013-07-10 19:49:00,
2013-07-10 15:52:00,77.6,75.1,29.71,SSW,202,5.0,23.0,92,0.00,,,0.07,Wunderground v.1.15,2013-07-10 19:52:00,
2013-07-10 15:54:00,77.6,75.1,29.71,SSE,165,4.0,23.0,92,0.00,,,0.07,Wunderground v.1.15,2013-07-10 19:54:00,
2013-07-10 15:56:00,77.7,74.9,29.71,South,175,5.0,23.0,91,0.00,,,0.07,Wunderground v.1.15,2013-07-10 19:56:00,
2013-07-10 15:57:00,77.8,75.0,29.70,SSW,198,4.0,23.0,91,0.00,,,0.07,Wunderground v.1.15,2013-07-10 19:57:00,
2013-07-10 15:58:00,77.8,75.0,29.70,South,175,4.0,23.0,91,0.00,,,0.07,Wunderground v.1.15,2013-07-10 19:58:00,
2013-07-10 15:59:00,77.8,75.0,29.70,South,173,4.0,23.0,91,0.00,,,0.07,Wunderground v.1.15,2013-07-10 19:59:00,
2013-07-10 16:02:00,78.0,75.2,29.70,SW,217,5.0,11.0,91,0.00,,,0.07,Wunderground v.1.15,2013-07-10 20:02:00,
2013-07-10 16:04:00,78.0,74.8,29.70,SSW,200,5.0,11.0,90,0.00,,,0.07,Wunderground v.1.15,2013-07-10 20:04:00,
2013-07-10 16:05:00,78.0,74.8,29.70,South,172,5.0,11.0,90,0.00,,,0.07,Wunderground v.1.15,2013-07-10 20:05:00,
2013-07-10 16:06:00,78.0,74.5,29.70,SW,221,5.0,11.0,89,0.00,,,0.07,Wunderground v.1.15,2013-07-10 20:06:00,
2013-07-10 16:08:00,78.0,74.5,29.70,South,175,5.0,11.0,89,0.00,,,0.07,Wunderground v.1.15,2013-07-10 20:08:00,
2013-07-10 16:10:00,78.0,74.2,29.71,SSE,161,6.0,6.0,88,0.00,,,0.07,Wunderground v.1.15,2013-07-10 20:10:00,
2013-07-10 16:11:00,78.0,74.5,29.71,SSE,159,5.0,8.0,89,0.00,,,0.07,Wunderground v.1.15,2013-07-10 20:11:00,
2013-07-10 16:16:00,77.8,74.0,29.71,South,186,7.0,14.0,88,0.00,,,0.07,Wunderground v.1.15,2013-07-10 20:16:00,
2013-07-10 16:17:00,77.8,74.0,29.72,WSW,248,7.0,14.0,88,0.00,,,0.08,Wunderground v.1.15,2013-07-10 20:17:00,
2013-07-10 16:18:00,77.8,74.0,29.72,South,188,7.0,14.0,88,0.49,,,0.09,Wunderground v.1.15,2013-07-10 20:18:00,
2013-07-10 16:22:00,77.5,74.0,29.71,WSW,238,6.0,11.0,89,0.25,,,0.11,Wunderground v.1.15,2013-07-10 20:22:00,
2013-07-10 16:23:00,77.4,73.9,29.71,SSW,202,5.0,11.0,89,0.18,,,0.11,Wunderground v.1.15,2013-07-10 20:23:00,
2013-07-10 16:24:00,77.4,73.9,29.71,SSW,207,4.0,11.0,89,0.14,,,0.11,Wunderground v.1.15,2013-07-10 20:24:00,
2013-07-10 16:26:00,77.2,73.7,29.71,SSW,212,3.0,11.0,89,0.10,,,0.11,Wunderground v.1.15,2013-07-10 20:26:00,
2013-07-10 16:29:00,77.0,73.8,29.71,SSW,207,3.0,11.0,90,0.06,,,0.11,Wunderground v.1.15,2013-07-10 20:29:00,
2013-07-10 16:30:00,76.9,73.7,29.71,South,191,3.0,11.0,90,0.06,,,0.11,Wunderground v.1.15,2013-07-10 20:30:00,
2013-07-10 16:32:00,76.8,73.6,29.71,South,190,2.0,11.0,90,0.05,,,0.11,Wunderground v.1.15,2013-07-10 20:32:00,
2013-07-10 16:33:00,76.7,73.9,29.71,South,169,2.0,11.0,91,0.04,,,0.11,Wunderground v.1.15,2013-07-10 20:33:00,
2013-07-10 16:34:00,76.7,73.9,29.71,South,186,3.0,11.0,91,0.04,,,0.11,Wunderground v.1.15,2013-07-10 20:34:00,
2013-07-10 16:37:00,76.5,73.7,29.71,SSW,203,3.0,11.0,91,0.00,,,0.11,Wunderground v.1.15,2013-07-10 20:37:00,
2013-07-10 16:39:00,76.4,73.6,29.71,South,190,3.0,11.0,91,0.00,,,0.11,Wunderground v.1.15,2013-07-10 20:39:00,
2013-07-10 16:40:00,76.4,73.6,29.71,WSW,239,4.0,11.0,91,0.00,,,0.11,Wunderground v.1.15,2013-07-10 20:40:00,
2013-07-10 16:41:00,76.3,73.8,29.71,South,173,4.0,11.0,92,0.00,,,0.11,Wunderground v.1.15,2013-07-10 20:41:00,
2013-07-10 16:44:00,76.3,73.8,29.70,SSW,206,4.0,11.0,92,0.00,,,0.11,Wunderground v.1.15,2013-07-10 20:44:00,
2013-07-10 16:46:00,76.3,73.8,29.70,South,171,4.0,11.0,92,0.00,,,0.11,Wunderground v.1.15,2013-07-10 20:46:00,
2013-07-10 16:48:00,76.4,74.2,29.70,South,181,4.0,11.0,93,0.00,,,0.11,Wunderground v.1.15,2013-07-10 20:48:00,
2013-07-10 16:50:00,76.4,74.2,29.70,South,178,4.0,11.0,93,0.00,,,0.11,Wunderground v.1.15,2013-07-10 20:50:00,
2013-07-10 16:53:00,76.3,74.1,29.70,SSE,157,4.0,11.0,93,0.00,,,0.11,Wunderground v.1.15,2013-07-10 20:53:00,
2013-07-10 16:56:00,76.3,74.1,29.69,South,184,5.0,11.0,93,0.00,,,0.11,Wunderground v.1.15,2013-07-10 20:56:00,
2013-07-10 16:57:00,76.3,74.1,29.69,South,188,5.0,11.0,93,0.00,,,0.11,Wunderground v.1.15,2013-07-10 20:57:00,
2013-07-10 16:59:00,76.3,74.1,29.69,South,176,5.0,11.0,93,0.00,,,0.11,Wunderground v.1.15,2013-07-10 20:59:00,
2013-07-10 17:00:00,76.3,74.1,29.69,SSE,148,5.0,10.0,93,0.00,,,0.11,Wunderground v.1.15,2013-07-10 21:00:00,
2013-07-10 17:01:00,76.3,74.1,29.68,SSE,166,5.0,10.0,93,0.00,,,0.11,Wunderground v.1.15,2013-07-10 21:01:00,
2013-07-10 17:02:00,76.2,74.0,29.68,SSW,205,6.0,10.0,93,0.00,,,0.11,Wunderground v.1.15,2013-07-10 21:02:00,
2013-07-10 17:07:00,76.3,74.1,29.68,South,175,6.0,10.0,93,0.00,,,0.11,Wunderground v.1.15,2013-07-10 21:07:00,
2013-07-10 17:09:00,76.3,74.1,29.68,South,175,6.0,10.0,93,0.00,,,0.11,Wunderground v.1.15,2013-07-10 21:09:00,
2013-07-10 17:10:00,76.3,74.1,29.68,South,173,6.0,10.0,93,0.00,,,0.11,Wunderground v.1.15,2013-07-10 21:10:00,
2013-07-10 17:14:00,76.4,74.2,29.68,South,173,5.0,10.0,93,0.00,,,0.11,Wunderground v.1.15,2013-07-10 21:14:00,
2013-07-10 17:15:00,76.4,74.2,29.68,SSE,162,5.0,10.0,93,0.00,,,0.11,Wunderground v.1.15,2013-07-10 21:15:00,
2013-07-10 17:16:00,76.3,74.1,29.68,South,178,5.0,10.0,93,0.00,,,0.11,Wunderground v.1.15,2013-07-10 21:16:00,
2013-07-10 17:18:00,76.3,73.8,29.68,South,179,5.0,10.0,92,0.00,,,0.11,Wunderground v.1.15,2013-07-10 21:18:00,
2013-07-10 17:20:00,76.2,73.7,29.68,SW,218,5.0,5.0,92,0.00,,,0.11,Wunderground v.1.15,2013-07-10 21:20:00,
2013-07-10 17:21:00,76.2,73.7,29.68,SSW,205,5.0,10.0,92,0.00,,,0.11,Wunderground v.1.15,2013-07-10 21:21:00,
2013-07-10 17:24:00,76.1,73.6,29.68,SSW,193,5.0,10.0,92,0.00,,,0.11,Wunderground v.1.15,2013-07-10 21:24:00,
2013-07-10 17:26:00,76.1,73.6,29.68,SSE,149,4.0,10.0,92,0.00,,,0.11,Wunderground v.1.15,2013-07-10 21:26:00,
2013-07-10 17:27:00,76.1,73.6,29.68,SSW,196,4.0,10.0,92,0.00,,,0.11,Wunderground v.1.15,2013-07-10 21:27:00,
2013-07-10 17:29:00,76.1,73.6,29.68,SSE,159,5.0,10.0,92,0.00,,,0.11,Wunderground v.1.15,2013-07-10 21:29:00,
2013-07-10 17:31:00,76.1,73.6,29.69,SSE,159,4.0,6.0,92,0.00,,,0.11,Wunderground v.1.15,2013-07-10 21:31:00,
2013-07-10 17:34:00,76.0,73.2,29.69,South,179,4.0,10.0,91,0.00,,,0.11,Wunderground v.1.15,2013-07-10 21:34:00,
2013-07-10 17:35:00,76.1,73.3,29.69,South,175,4.0,10.0,91,0.00,,,0.11,Wunderground v.1.15,2013-07-10 21:35:00,
2013-07-10 17:37:00,76.0,73.2,29.69,South,175,4.0,10.0,91,0.00,,,0.11,Wunderground v.1.15,2013-07-10 21:37:00,
2013-07-10 17:40:00,76.0,73.2,29.69,South,175,4.0,10.0,91,0.00,,,0.11,Wunderground v.1.15,2013-07-10 21:40:00,
2013-07-10 17:41:00,76.0,73.2,29.69,South,175,4.0,10.0,91,0.00,,,0.11,Wunderground v.1.15,2013-07-10 21:41:00,
2013-07-10 17:44:00,76.0,73.2,29.68,SW,231,4.0,10.0,91,0.00,,,0.11,Wunderground v.1.15,2013-07-10 21:44:00,
2013-07-10 17:45:00,76.0,73.2,29.68,SW,229,3.0,10.0,91,0.00,,,0.11,Wunderground v.1.15,2013-07-10 21:45:00,
2013-07-10 17:47:00,76.0,73.2,29.68,South,190,3.0,10.0,91,0.00,,,0.11,Wunderground v.1.15,2013-07-10 21:47:00,
2013-07-10 17:48:00,76.0,73.2,29.68,South,189,2.0,10.0,91,0.00,,,0.11,Wunderground v.1.15,2013-07-10 21:48:00,
2013-07-10 17:50:00,76.0,73.2,29.68,SSW,196,3.0,10.0,91,0.00,,,0.11,Wunderground v.1.15,2013-07-10 21:50:00,
2013-07-10 17:51:00,75.9,73.1,29.68,South,176,4.0,10.0,91,0.00,,,0.11,Wunderground v.1.15,2013-07-10 21:51:00,
2013-07-10 17:53:00,75.9,73.1,29.68,SSW,208,4.0,10.0,91,0.00,,,0.11,Wunderground v.1.15,2013-07-10 21:53:00,
2013-07-10 17:55:00,76.0,73.5,29.68,SSW,208,3.0,10.0,92,0.00,,,0.11,Wunderground v.1.15,2013-07-10 21:55:00,
2013-07-10 18:00:00,76.0,73.5,29.68,South,190,1.0,1.0,92,0.00,,,0.11,Wunderground v.1.15,2013-07-10 22:00:00,
2013-07-10 18:01:00,76.1,73.6,29.68,South,190,1.0,3.0,92,0.00,,,0.11,Wunderground v.1.15,2013-07-10 22:01:00,
2013-07-10 18:02:00,76.1,73.6,29.68,South,190,1.0,7.0,92,0.00,,,0.11,Wunderground v.1.15,2013-07-10 22:02:00,
2013-07-10 18:06:00,76.2,73.7,29.68,SW,217,1.0,7.0,92,0.00,,,0.11,Wunderground v.1.15,2013-07-10 22:06:00,
2013-07-10 18:08:00,76.2,73.7,29.68,SSW,207,2.0,7.0,92,0.00,,,0.11,Wunderground v.1.15,2013-07-10 22:08:00,
2013-07-10 18:10:00,76.1,73.6,29.68,SSW,207,2.0,2.0,92,0.00,,,0.11,Wunderground v.1.15,2013-07-10 22:10:00,
2013-07-10 18:12:00,76.1,73.6,29.68,SSW,207,2.0,7.0,92,0.00,,,0.11,Wunderground v.1.15,2013-07-10 22:12:00,
2013-07-10 18:14:00,76.1,73.6,29.68,South,182,3.0,7.0,92,0.00,,,0.11,Wunderground v.1.15,2013-07-10 22:14:00,
2013-07-10 18:16:00,76.1,73.6,29.68,SSW,197,3.0,7.0,92,0.00,,,0.11,Wunderground v.1.15,2013-07-10 22:16:00,
2013-07-10 18:17:00,76.1,73.6,29.68,SSW,192,3.0,7.0,92,0.00,,,0.11,Wunderground v.1.15,2013-07-10 22:17:00,
2013-07-10 18:18:00,76.1,73.6,29.68,South,186,3.0,7.0,92,0.00,,,0.11,Wunderground v.1.15,2013-07-10 22:18:00,
2013-07-10 18:19:00,76.2,73.7,29.68,South,186,3.0,7.0,92,0.00,,,0.11,Wunderground v.1.15,2013-07-10 22:19:00,
2013-07-10 18:23:00,76.2,73.7,29.68,South,180,2.0,7.0,92,0.00,,,0.11,Wunderground v.1.15,2013-07-10 22:23:00,
2013-07-10 18:25:00,76.2,73.7,29.69,South,180,1.0,7.0,92,0.00,,,0.11,Wunderground v.1.15,2013-07-10 22:25:00,
2013-07-10 18:28:00,76.2,73.7,29.69,WSW,239,2.0,7.0,92,0.00,,,0.11,Wunderground v.1.15,2013-07-10 22:28:00,
2013-07-10 18:31:00,76.2,73.7,29.68,South,176,1.0,7.0,92,0.00,,,0.11,Wunderground v.1.15,2013-07-10 22:31:00,
2013-07-10 18:32:00,76.2,73.7,29.68,SSE,166,2.0,7.0,92,0.00,,,0.11,Wunderground v.1.15,2013-07-10 22:32:00,
2013-07-10 18:33:00,76.2,73.7,29.68,SSE,167,3.0,7.0,92,0.00,,,0.11,Wunderground v.1.15,2013-07-10 22:33:00,
2013-07-10 18:34:00,76.2,73.7,29.68,SSE,167,3.0,7.0,92,0.00,,,0.11,Wunderground v.1.15,2013-07-10 22:34:00,
2013-07-10 18:38:00,76.2,73.7,29.68,South,175,4.0,7.0,92,0.00,,,0.11,Wunderground v.1.15,2013-07-10 22:38:00,
2013-07-10 18:39:00,76.2,73.7,29.68,South,169,4.0,7.0,92,0.00,,,0.11,Wunderground v.1.15,2013-07-10 22:39:00,
2013-07-10 18:40:00,76.3,73.8,29.68,SW,217,5.0,7.0,92,0.00,,,0.11,Wunderground v.1.15,2013-07-10 22:40:00,
2013-07-10 18:41:00,76.3,73.8,29.68,South,178,5.0,7.0,92,0.00,,,0.11,Wunderground v.1.15,2013-07-10 22:41:00,
2013-07-10 18:45:00,76.3,73.8,29.68,SSW,201,4.0,7.0,92,0.00,,,0.11,Wunderground v.1.15,2013-07-10 22:45:00,
2013-07-10 18:46:00,76.3,73.8,29.68,SSW,201,4.0,7.0,92,0.00,,,0.11,Wunderground v.1.15,2013-07-10 22:46:00,
2013-07-10 18:47:00,76.3,73.8,29.68,SSW,201,3.0,7.0,92,0.00,,,0.11,Wunderground v.1.15,2013-07-10 22:47:00,
2013-07-10 18:49:00,76.4,73.9,29.68,SSW,198,3.0,7.0,92,0.00,,,0.11,Wunderground v.1.15,2013-07-10 22:49:00,
2013-07-10 18:51:00,76.3,73.8,29.69,NNW,327,3.0,7.0,92,0.00,,,0.11,Wunderground v.1.15,2013-07-10 22:51:00,
2013-07-10 18:52:00,76.3,73.8,29.69,NNW,327,2.0,7.0,92,0.00,,,0.11,Wunderground v.1.15,2013-07-10 22:52:00,
2013-07-10 18:55:00,76.3,73.8,29.69,West,274,2.0,7.0,92,0.00,,,0.11,Wunderground v.1.15,2013-07-10 22:55:00,
2013-07-10 18:56:00,76.3,73.8,29.69,West,273,2.0,7.0,92,0.00,,,0.11,Wunderground v.1.15,2013-07-10 22:56:00,
2013-07-10 18:57:00,76.3,73.8,29.69,West,273,2.0,7.0,92,0.00,,,0.11,Wunderground v.1.15,2013-07-10 22:57:00,
2013-07-10 18:58:00,76.3,73.8,29.69,West,273,2.0,7.0,92,0.00,,,0.11,Wunderground v.1.15,2013-07-10 22:58:00,
2013-07-10 19:01:00,76.2,73.7,29.69,West,273,1.0,9.0,92,0.00,,,0.11,Wunderground v.1.15,2013-07-10 23:01:00,
2013-07-10 19:03:00,76.2,73.7,29.69,SW,223,1.0,9.0,92,0.00,,,0.11,Wunderground v.1.15,2013-07-10 23:03:00,
2013-07-10 19:06:00,76.2,73.7,29.69,SW,223,0.0,9.0,92,0.00,,,0.11,Wunderground v.1.15,2013-07-10 23:06:00,
2013-07-10 19:07:00,76.2,74.0,29.69,SW,220,0.0,9.0,93,0.00,,,0.11,Wunderground v.1.15,2013-07-10 23:07:00,
2013-07-10 19:08:00,76.2,73.7,29.69,SSW,198,1.0,9.0,92,0.00,,,0.11,Wunderground v.1.15,2013-07-10 23:08:00,
2013-07-10 19:11:00,76.2,74.0,29.69,South,190,1.0,9.0,93,0.00,,,0.11,Wunderground v.1.15,2013-07-10 23:11:00,
2013-07-10 19:12:00,76.2,74.0,29.69,South,190,1.0,9.0,93,0.00,,,0.11,Wunderground v.1.15,2013-07-10 23:12:00,
2013-07-10 19:13:00,76.2,74.0,29.69,South,190,1.0,9.0,93,0.00,,,0.11,Wunderground v.1.15,2013-07-10 23:13:00,
2013-07-10 19:14:00,76.2,74.0,29.68,South,190,2.0,9.0,93,0.00,,,0.11,Wunderground v.1.15,2013-07-10 23:14:00,
2013-07-10 19:16:00,76.2,74.0,29.68,South,190,2.0,9.0,93,0.00,,,0.11,Wunderground v.1.15,2013-07-10 23:16:00,
2013-07-10 19:17:00,76.2,74.0,29.68,South,190,2.0,9.0,93,0.00,,,0.11,Wunderground v.1.15,2013-07-10 23:17:00,
2013-07-10 19:21:00,76.1,73.9,29.68,South,190,2.0,9.0,93,0.00,,,0.11,Wunderground v.1.15,2013-07-10 23:21:00,
2013-07-10 19:22:00,76.1,73.9,29.69,South,190,2.0,9.0,93,0.00,,,0.11,Wunderground v.1.15,2013-07-10 23:22:00,
2013-07-10 19:23:00,76.1,73.9,29.69,South,189,2.0,9.0,93,0.00,,,0.11,Wunderground v.1.15,2013-07-10 23:23:00,
2013-07-10 19:24:00,76.1,73.9,29.69,South,189,2.0,9.0,93,0.00,,,0.11,Wunderground v.1.15,2013-07-10 23:24:00,
2013-07-10 19:26:00,76.1,73.9,29.69,South,190,2.0,9.0,93,0.00,,,0.11,Wunderground v.1.15,2013-07-10 23:26:00,
2013-07-10 19:28:00,76.1,73.9,29.69,South,190,2.0,9.0,93,0.00,,,0.11,Wunderground v.1.15,2013-07-10 23:28:00,
2013-07-10 19:29:00,76.0,73.8,29.69,South,190,1.0,9.0,93,0.00,,,0.11,Wunderground v.1.15,2013-07-10 23:29:00,
2013-07-10 19:31:00,76.0,73.8,29.68,South,175,2.0,9.0,93,0.00,,,0.11,Wunderground v.1.15,2013-07-10 23:31:00,
2013-07-10 19:33:00,76.0,73.8,29.68,SSE,161,2.0,9.0,93,0.00,,,0.11,Wunderground v.1.15,2013-07-10 23:33:00,
2013-07-10 19:36:00,75.9,73.7,29.68,SSW,200,3.0,9.0,93,0.00,,,0.11,Wunderground v.1.15,2013-07-10 23:36:00,
2013-07-10 19:37:00,75.9,73.7,29.68,SSW,200,3.0,9.0,93,0.00,,,0.11,Wunderground v.1.15,2013-07-10 23:37:00,
2013-07-10 19:38:00,75.9,73.7,29.68,SSW,200,3.0,9.0,93,0.00,,,0.11,Wunderground v.1.15,2013-07-10 23:38:00,
2013-07-10 19:39:00,75.9,73.7,29.68,SSW,198,4.0,9.0,93,0.00,,,0.11,Wunderground v.1.15,2013-07-10 23:39:00,
2013-07-10 19:41:00,75.9,73.7,29.68,SSW,201,3.0,9.0,93,0.00,,,0.11,Wunderground v.1.15,2013-07-10 23:41:00,
2013-07-10 19:42:00,75.9,73.7,29.68,South,172,3.0,9.0,93,0.00,,,0.11,Wunderground v.1.15,2013-07-10 23:42:00,
2013-07-10 19:44:00,75.8,73.6,29.68,SSW,205,3.0,9.0,93,0.00,,,0.11,Wunderground v.1.15,2013-07-10 23:44:00,
2013-07-10 19:46:00,75.8,73.6,29.68,SW,228,2.0,9.0,93,0.00,,,0.11,Wunderground v.1.15,2013-07-10 23:46:00,
2013-07-10 19:47:00,75.8,73.6,29.68,SSW,196,2.0,9.0,93,0.00,,,0.11,Wunderground v.1.15,2013-07-10 23:47:00,
2013-07-10 19:51:00,75.8,73.6,29.69,South,178,4.0,9.0,93,0.00,,,0.11,Wunderground v.1.15,2013-07-10 23:51:00,
2013-07-10 19:52:00,75.8,73.6,29.69,South,178,4.0,9.0,93,0.00,,,0.11,Wunderground v.1.15,2013-07-10 23:52:00,
2013-07-10 19:56:00,75.8,73.6,29.69,South,186,3.0,9.0,93,0.00,,,0.11,Wunderground v.1.15,2013-07-10 23:56:00,
2013-07-10 19:57:00,75.8,73.6,29.69,South,186,3.0,9.0,93,0.00,,,0.11,Wunderground v.1.15,2013-07-10 23:57:00,
2013-07-10 19:58:00,75.8,73.6,29.69,WSW,255,2.0,9.0,93,0.00,,,0.11,Wunderground v.1.15,2013-07-10 23:58:00,
2013-07-10 20:00:00,75.8,73.6,29.69,SSE,167,2.0,2.0,93,0.00,,,0.11,Wunderground v.1.15,2013-07-11 00:00:00,
2013-07-10 20:03:00,75.7,73.5,29.69,SSW,202,2.0,9.0,93,0.00,,,0.11,Wunderground v.1.15,2013-07-11 00:03:00,
2013-07-10 20:04:00,75.7,73.5,29.69,SSW,198,2.0,9.0,93,0.00,,,0.11,Wunderground v.1.15,2013-07-11 00:04:00,
2013-07-10 20:06:00,75.7,73.5,29.69,SSW,199,2.0,9.0,93,0.00,,,0.11,Wunderground v.1.15,2013-07-11 00:06:00,
2013-07-10 20:07:00,75.7,73.5,29.69,SSW,199,2.0,9.0,93,0.00,,,0.11,Wunderground v.1.15,2013-07-11 00:07:00,
2013-07-10 20:09:00,75.6,73.4,29.69,SW,233,2.0,9.0,93,0.00,,,0.11,Wunderground v.1.15,2013-07-11 00:09:00,
2013-07-10 20:11:00,75.6,73.8,29.69,South,178,2.0,9.0,94,0.00,,,0.11,Wunderground v.1.15,2013-07-11 00:11:00,
2013-07-10 20:12:00,75.6,73.8,29.69,South,180,2.0,9.0,94,0.00,,,0.11,Wunderground v.1.15,2013-07-11 00:12:00,
2013-07-10 20:13:00,75.6,73.8,29.69,South,177,3.0,9.0,94,0.00,,,0.11,Wunderground v.1.15,2013-07-11 00:13:00,
2013-07-10 20:17:00,75.6,73.8,29.69,South,178,3.0,9.0,94,0.00,,,0.11,Wunderground v.1.15,2013-07-11 00:17:00,
2013-07-10 20:18:00,75.6,73.8,29.69,South,178,3.0,9.0,94,0.00,,,0.11,Wunderground v.1.15,2013-07-11 00:18:00,
2013-07-10 20:19:00,75.6,73.8,29.69,South,178,4.0,9.0,94,0.00,,,0.11,Wunderground v.1.15,2013-07-11 00:19:00,
2013-07-10 20:21:00,75.6,73.8,29.69,South,178,4.0,9.0,94,0.00,,,0.11,Wunderground v.1.15,2013-07-11 00:21:00,
2013-07-10 20:25:00,75.6,73.8,29.69,South,182,3.0,9.0,94,0.00,,,0.11,Wunderground v.1.15,2013-07-11 00:25:00,
2013-07-10 20:26:00,75.6,73.8,29.69,South,186,3.0,9.0,94,0.00,,,0.11,Wunderground v.1.15,2013-07-11 00:26:00,
2013-07-10 20:30:00,75.6,73.8,29.69,SSW,198,3.0,9.0,94,0.00,,,0.11,Wunderground v.1.15,2013-07-11 00:30:00,
2013-07-10 20:31:00,75.6,73.8,29.69,SSW,194,3.0,9.0,94,0.00,,,0.11,Wunderground v.1.15,2013-07-11 00:31:00,
2013-07-10 20:33:00,75.6,73.8,29.69,South,174,3.0,9.0,94,0.00,,,0.11,Wunderground v.1.15,2013-07-11 00:33:00,
2013-07-10 20:35:00,75.6,73.8,29.69,South,174,3.0,9.0,94,0.00,,,0.11,Wunderground v.1.15,2013-07-11 00:35:00,
2013-07-10 20:36:00,75.6,73.8,29.68,South,174,3.0,9.0,94,0.00,,,0.11,Wunderground v.1.15,2013-07-11 00:36:00,
2013-07-10 20:38:00,75.6,73.8,29.69,South,174,3.0,9.0,94,0.00,,,0.11,Wunderground v.1.15,2013-07-11 00:38:00,
2013-07-10 20:40:00,75.5,73.7,29.69,South,175,3.0,3.0,94,0.00,,,0.11,Wunderground v.1.15,2013-07-11 00:40:00,
2013-07-10 20:41:00,75.5,73.7,29.69,South,175,2.0,5.0,94,0.00,,,0.11,Wunderground v.1.15,2013-07-11 00:41:00,
2013-07-10 20:43:00,75.5,73.7,29.69,South,175,2.0,9.0,94,0.00,,,0.11,Wunderground v.1.15,2013-07-11 00:43:00,
2013-07-10 20:46:00,75.5,73.7,29.69,South,175,2.0,9.0,94,0.00,,,0.11,Wunderground v.1.15,2013-07-11 00:46:00,
2013-07-10 20:48:00,75.5,73.7,29.69,South,175,2.0,9.0,94,0.00,,,0.11,Wunderground v.1.15,2013-07-11 00:48:00,
2013-07-10 20:49:00,75.5,73.7,29.69,South,175,2.0,9.0,94,0.00,,,0.11,Wunderground v.1.15,2013-07-11 00:49:00,
2013-07-10 20:51:00,75.5,73.7,29.69,South,175,2.0,9.0,94,0.00,,,0.11,Wunderground v.1.15,2013-07-11 00:51:00,
2013-07-10 20:54:00,75.5,73.7,29.69,South,174,3.0,9.0,94,0.00,,,0.11,Wunderground v.1.15,2013-07-11 00:54:00,
2013-07-10 20:55:00,75.4,73.6,29.69,South,174,4.0,9.0,94,0.00,,,0.11,Wunderground v.1.15,2013-07-11 00:55:00,
2013-07-10 20:56:00,75.4,73.6,29.68,South,174,4.0,9.0,94,0.00,,,0.11,Wunderground v.1.15,2013-07-11 00:56:00,
2013-07-10 20:59:00,75.4,73.6,29.68,SSW,192,4.0,9.0,94,0.00,,,0.11,Wunderground v.1.15,2013-07-11 00:59:00,
2013-07-10 21:00:00,75.4,73.6,29.69,South,187,4.0,7.0,94,0.00,,,0.11,Wunderground v.1.15,2013-07-11 01:00:00,
2013-07-10 21:02:00,75.4,73.6,29.69,SW,222,4.0,7.0,94,0.00,,,0.11,Wunderground v.1.15,2013-07-11 01:02:00,
2013-07-10 21:04:00,75.4,73.6,29.69,SSW,202,4.0,7.0,94,0.00,,,0.11,Wunderground v.1.15,2013-07-11 01:04:00,
2013-07-10 21:08:00,75.3,73.5,29.69,South,184,4.0,7.0,94,0.00,,,0.11,Wunderground v.1.15,2013-07-11 01:08:00,
2013-07-10 21:09:00,75.3,73.5,29.69,South,174,4.0,7.0,94,0.00,,,0.11,Wunderground v.1.15,2013-07-11 01:09:00,
2013-07-10 21:10:00,75.3,73.5,29.69,South,170,4.0,7.0,94,0.00,,,0.11,Wunderground v.1.15,2013-07-11 01:10:00,
2013-07-10 21:11:00,75.3,73.5,29.69,South,171,4.0,7.0,94,0.00,,,0.11,Wunderground v.1.15,2013-07-11 01:11:00,
2013-07-10 21:15:00,75.3,73.5,29.69,SSW,201,4.0,7.0,94,0.00,,,0.11,Wunderground v.1.15,2013-07-11 01:15:00,
2013-07-10 21:16:00,75.3,73.5,29.69,SSW,200,4.0,7.0,94,0.00,,,0.11,Wunderground v.1.15,2013-07-11 01:16:00,
2013-07-10 21:17:00,75.3,73.5,29.69,SSW,194,4.0,7.0,94,0.00,,,0.11,Wunderground v.1.15,2013-07-11 01:17:00,
2013-07-10 21:18:00,75.3,73.5,29.69,WSW,249,4.0,7.0,94,0.00,,,0.11,Wunderground v.1.15,2013-07-11 01:18:00,
2013-07-10 21:22:00,75.2,73.4,29.69,SSW,193,2.0,7.0,94,0.00,,,0.11,Wunderground v.1.15,2013-07-11 01:22:00,
2013-07-10 21:23:00,75.3,73.8,29.69,WSW,249,2.0,7.0,95,0.00,,,0.11,Wunderground v.1.15,2013-07-11 01:23:00,
2013-07-10 21:27:00,75.2,73.7,29.70,SSW,192,2.0,7.0,95,0.00,,,0.11,Wunderground v.1.15,2013-07-11 01:27:00,
2013-07-10 21:29:00,75.2,73.7,29.69,SSW,192,2.0,7.0,95,0.00,,,0.11,Wunderground v.1.15,2013-07-11 01:29:00,
2013-07-10 21:30:00,75.2,73.7,29.69,SSW,192,2.0,7.0,95,0.00,,,0.11,Wunderground v.1.15,2013-07-11 01:30:00,
2013-07-10 21:33:00,75.2,73.7,29.69,South,182,3.0,7.0,95,0.00,,,0.11,Wunderground v.1.15,2013-07-11 01:33:00,
2013-07-10 21:34:00,75.1,73.6,29.70,South,182,3.0,7.0,95,0.00,,,0.11,Wunderground v.1.15,2013-07-11 01:34:00,
2013-07-10 21:36:00,75.1,73.6,29.70,South,182,3.0,7.0,95,0.00,,,0.11,Wunderground v.1.15,2013-07-11 01:36:00,
2013-07-10 21:38:00,75.1,73.6,29.69,South,172,3.0,7.0,95,0.00,,,0.11,Wunderground v.1.15,2013-07-11 01:38:00,
2013-07-10 21:40:00,75.1,73.6,29.69,South,170,4.0,4.0,95,0.00,,,0.11,Wunderground v.1.15,2013-07-11 01:40:00,
2013-07-10 21:41:00,75.1,73.6,29.69,SSW,205,3.0,7.0,95,0.00,,,0.11,Wunderground v.1.15,2013-07-11 01:41:00,
2013-07-10 21:43:00,75.1,73.6,29.70,SSW,201,3.0,7.0,95,0.00,,,0.11,Wunderground v.1.15,2013-07-11 01:43:00,
2013-07-10 21:45:00,75.1,73.6,29.70,SW,225,3.0,7.0,95,0.00,,,0.11,Wunderground v.1.15,2013-07-11 01:45:00,
2013-07-10 21:48:00,75.0,73.5,29.70,SSW,192,3.0,7.0,95,0.00,,,0.11,Wunderground v.1.15,2013-07-11 01:48:00,
2013-07-10 21:49:00,75.1,73.6,29.70,SSW,192,3.0,7.0,95,0.00,,,0.11,Wunderground v.1.15,2013-07-11 01:49:00,
2013-07-10 21:50:00,75.0,73.5,29.70,SSW,192,3.0,7.0,95,0.00,,,0.11,Wunderground v.1.15,2013-07-11 01:50:00,
2013-07-10 21:52:00,75.0,73.5,29.70,SSW,192,3.0,7.0,95,0.00,,,0.11,Wunderground v.1.15,2013-07-11 01:52:00,
2013-07-10 21:55:00,75.1,73.6,29.70,SSW,192,3.0,7.0,95,0.00,,,0.11,Wunderground v.1.15,2013-07-11 01:55:00,
2013-07-10 21:57:00,75.0,73.5,29.70,South,171,3.0,7.0,95,0.00,,,0.11,Wunderground v.1.15,2013-07-11 01:57:00,
2013-07-10 21:58:00,75.0,73.5,29.70,South,171,3.0,7.0,95,0.00,,,0.11,Wunderground v.1.15,2013-07-11 01:58:00,
2013-07-10 22:00:00,75.0,73.5,29.70,SSW,212,3.0,7.0,95,0.00,,,0.11,Wunderground v.1.15,2013-07-11 02:00:00,
2013-07-10 22:01:00,75.0,73.5,29.70,South,179,3.0,7.0,95,0.00,,,0.11,Wunderground v.1.15,2013-07-11 02:01:00,
2013-07-10 22:03:00,75.0,73.5,29.70,South,177,4.0,7.0,95,0.00,,,0.11,Wunderground v.1.15,2013-07-11 02:03:00,
2013-07-10 22:04:00,75.0,73.5,29.70,South,177,4.0,7.0,95,0.00,,,0.11,Wunderground v.1.15,2013-07-11 02:04:00,
2013-07-10 22:07:00,75.0,73.5,29.70,South,176,4.0,7.0,95,0.00,,,0.11,Wunderground v.1.15,2013-07-11 02:07:00,
2013-07-10 22:09:00,74.9,73.4,29.70,South,182,4.0,7.0,95,0.00,,,0.11,Wunderground v.1.15,2013-07-11 02:09:00,
2013-07-10 22:10:00,74.9,73.4,29.70,SW,231,4.0,7.0,95,0.00,,,0.11,Wunderground v.1.15,2013-07-11 02:10:00,
2013-07-10 22:12:00,74.9,73.4,29.70,West,276,4.0,7.0,95,0.00,,,0.11,Wunderground v.1.15,2013-07-11 02:12:00,
2013-07-10 22:14:00,74.9,73.4,29.70,SW,223,4.0,7.0,95,0.00,,,0.11,Wunderground v.1.15,2013-07-11 02:14:00,
2013-07-10 22:15:00,74.9,73.4,29.70,South,190,3.0,7.0,95,0.00,,,0.11,Wunderground v.1.15,2013-07-11 02:15:00,
2013-07-10 22:16:00,74.9,73.4,29.70,South,190,3.0,7.0,95,0.00,,,0.11,Wunderground v.1.15,2013-07-11 02:16:00,
2013-07-10 22:19:00,74.9,73.4,29.70,South,188,3.0,7.0,95,0.00,,,0.11,Wunderground v.1.15,2013-07-11 02:19:00,
2013-07-10 22:20:00,74.9,73.4,29.70,South,188,3.0,3.0,95,0.00,,,0.11,Wunderground v.1.15,2013-07-11 02:20:00,
2013-07-10 22:21:00,74.9,73.4,29.70,South,188,2.0,7.0,95,0.00,,,0.11,Wunderground v.1.15,2013-07-11 02:21:00,
2013-07-10 22:25:00,74.8,73.3,29.70,South,182,2.0,7.0,95,0.00,,,0.11,Wunderground v.1.15,2013-07-11 02:25:00,
2013-07-10 22:26:00,74.8,73.3,29.69,South,182,2.0,7.0,95,0.00,,,0.11,Wunderground v.1.15,2013-07-11 02:26:00,
2013-07-10 22:27:00,74.8,73.3,29.70,South,182,2.0,7.0,95,0.00,,,0.11,Wunderground v.1.15,2013-07-11 02:27:00,
2013-07-10 22:28:00,74.8,73.3,29.70,South,182,2.0,7.0,95,0.00,,,0.11,Wunderground v.1.15,2013-07-11 02:28:00,
2013-07-10 22:29:00,74.8,73.3,29.69,South,182,2.0,7.0,95,0.00,,,0.11,Wunderground v.1.15,2013-07-11 02:29:00,
2013-07-10 22:31:00,74.8,73.3,29.69,South,182,2.0,7.0,95,0.00,,,0.11,Wunderground v.1.15,2013-07-11 02:31:00,
2013-07-10 22:33:00,74.8,73.3,29.70,South,182,2.0,7.0,95,0.00,,,0.11,Wunderground v.1.15,2013-07-11 02:33:00,
2013-07-10 22:34:00,74.8,73.3,29.69,South,182,1.0,7.0,95,0.00,,,0.11,Wunderground v.1.15,2013-07-11 02:34:00,
2013-07-10 22:35:00,74.8,73.3,29.70,South,182,2.0,7.0,95,0.00,,,0.11,Wunderground v.1.15,2013-07-11 02:35:00,
2013-07-10 22:39:00,74.8,73.3,29.70,South,191,2.0,7.0,95,0.00,,,0.11,Wunderground v.1.15,2013-07-11 02:39:00,
2013-07-10 22:40:00,74.8,73.3,29.70,South,191,2.0,2.0,95,0.00,,,0.11,Wunderground v.1.15,2013-07-11 02:40:00,
2013-07-10 22:41:00,74.8,73.3,29.70,South,191,1.0,7.0,95,0.00,,,0.11,Wunderground v.1.15,2013-07-11 02:41:00,
2013-07-10 22:43:00,74.8,73.3,29.70,South,191,1.0,7.0,95,0.00,,,0.11,Wunderground v.1.15,2013-07-11 02:43:00,
2013-07-10 22:46:00,74.8,73.3,29.70,South,191,2.0,7.0,95,0.00,,,0.11,Wunderground v.1.15,2013-07-11 02:46:00,
2013-07-10 22:47:00,74.8,73.3,29.70,South,191,1.0,7.0,95,0.00,,,0.11,Wunderground v.1.15,2013-07-11 02:47:00,
2013-07-10 22:48:00,74.8,73.3,29.70,South,191,1.0,7.0,95,0.00,,,0.11,Wunderground v.1.15,2013-07-11 02:48:00,
2013-07-10 22:50:00,74.8,73.3,29.70,South,191,1.0,7.0,95,0.00,,,0.11,Wunderground v.1.15,2013-07-11 02:50:00,
2013-07-10 22:53:00,74.8,73.3,29.70,South,180,2.0,8.0,95,0.00,,,0.11,Wunderground v.1.15,2013-07-11 02:53:00,
2013-07-10 22:55:00,74.7,73.2,29.70,SSW,200,3.0,8.0,95,0.00,,,0.11,Wunderground v.1.15,2013-07-11 02:55:00,
2013-07-10 22:57:00,74.7,73.2,29.70,SSW,202,3.0,8.0,95,0.00,,,0.11,Wunderground v.1.15,2013-07-11 02:57:00,
2013-07-10 22:59:00,74.7,73.2,29.70,SSW,201,3.0,8.0,95,0.00,,,0.11,Wunderground v.1.15,2013-07-11 02:59:00,
2013-07-10 23:01:00,74.7,73.2,29.70,SSW,200,3.0,8.0,95,0.00,,,0.11,Wunderground v.1.15,2013-07-11 03:01:00,
2013-07-10 23:02:00,74.7,73.2,29.70,SSW,200,2.0,8.0,95,0.00,,,0.11,Wunderground v.1.15,2013-07-11 03:02:00,
2013-07-10 23:04:00,74.7,73.2,29.70,SSW,200,1.0,8.0,95,0.00,,,0.11,Wunderground v.1.15,2013-07-11 03:04:00,
2013-07-10 23:05:00,74.7,73.2,29.70,SSW,193,1.0,8.0,95,0.00,,,0.11,Wunderground v.1.15,2013-07-11 03:05:00,
2013-07-10 23:10:00,74.6,73.1,29.70,SSW,193,2.0,2.0,95,0.00,,,0.11,Wunderground v.1.15,2013-07-11 03:10:00,
2013-07-10 23:11:00,74.6,73.1,29.70,SSW,193,2.0,8.0,95,0.00,,,0.11,Wunderground v.1.15,2013-07-11 03:11:00,
2013-07-10 23:12:00,74.6,73.1,29.70,SSW,193,2.0,8.0,95,0.00,,,0.11,Wunderground v.1.15,2013-07-11 03:12:00,
2013-07-10 23:16:00,74.6,73.1,29.69,SSW,193,2.0,8.0,95,0.00,,,0.11,Wunderground v.1.15,2013-07-11 03:16:00,
2013-07-10 23:17:00,74.6,73.1,29.69,SSW,193,2.0,8.0,95,0.00,,,0.11,Wunderground v.1.15,2013-07-11 03:17:00,
2013-07-10 23:19:00,74.5,73.0,29.69,SSW,193,2.0,8.0,95,0.00,,,0.11,Wunderground v.1.15,2013-07-11 03:19:00,
2013-07-10 23:23:00,74.5,73.0,29.69,SSW,193,2.0,8.0,95,0.00,,,0.11,Wunderground v.1.15,2013-07-11 03:23:00,
2013-07-10 23:24:00,74.5,73.0,29.69,SSW,193,1.0,8.0,95,0.00,,,0.11,Wunderground v.1.15,2013-07-11 03:24:00,
2013-07-10 23:26:00,74.5,73.0,29.69,SSW,193,1.0,8.0,95,0.00,,,0.11,Wunderground v.1.15,2013-07-11 03:26:00,
2013-07-10 23:29:00,74.5,73.0,29.69,SSW,193,1.0,8.0,95,0.00,,,0.11,Wunderground v.1.15,2013-07-11 03:29:00,
2013-07-10 23:30:00,74.5,73.0,29.69,SSW,193,1.0,1.0,95,0.00,,,0.11,Wunderground v.1.15,2013-07-11 03:30:00,
2013-07-10 23:33:00,74.4,73.2,29.69,SSW,193,1.0,8.0,96,0.00,,,0.11,Wunderground v.1.15,2013-07-11 03:33:00,
2013-07-10 23:35:00,74.4,73.2,29.69,SSW,193,1.0,8.0,96,0.00,,,0.11,Wunderground v.1.15,2013-07-11 03:35:00,
2013-07-10 23:37:00,74.4,73.2,29.69,SSW,193,1.0,8.0,96,0.00,,,0.11,Wunderground v.1.15,2013-07-11 03:37:00,
2013-07-10 23:40:00,74.4,73.2,29.69,SSW,193,1.0,1.0,96,0.00,,,0.11,Wunderground v.1.15,2013-07-11 03:40:00,
2013-07-10 23:43:00,74.4,73.2,29.69,SSW,193,1.0,8.0,96,0.00,,,0.11,Wunderground v.1.15,2013-07-11 03:43:00,
2013-07-10 23:46:00,74.3,73.1,29.69,SSW,193,1.0,8.0,96,0.00,,,0.11,Wunderground v.1.15,2013-07-11 03:46:00,
2013-07-10 23:47:00,74.3,73.1,29.69,SSW,193,1.0,8.0,96,0.00,,,0.11,Wunderground v.1.15,2013-07-11 03:47:00,
2013-07-10 23:48:00,74.3,73.1,29.69,SSW,193,1.0,8.0,96,0.00,,,0.11,Wunderground v.1.15,2013-07-11 03:48:00,
2013-07-10 23:51:00,74.2,72.7,29.69,SSW,193,1.0,8.0,95,0.00,,,0.11,Wunderground v.1.15,2013-07-11 03:51:00,
2013-07-10 23:53:00,74.2,72.7,29.69,SSW,193,1.0,8.0,95,0.00,,,0.11,Wunderground v.1.15,2013-07-11 03:53:00,
2013-07-10 23:54:00,74.2,72.7,29.69,SSW,193,1.0,8.0,95,0.00,,,0.11,Wunderground v.1.15,2013-07-11 03:54:00,
2013-07-10 23:57:00,74.1,72.9,29.69,SSW,193,1.0,8.0,96,0.00,,,0.11,Wunderground v.1.15,2013-07-11 03:57:00,
2013-07-10 23:59:00,74.1,72.9,29.69,SSW,193,1.0,8.0,96,0.00,,,0.11,Wunderground v.1.15,2013-07-11 03:59:00,